Time,TemperatureF,DewpointF,PressureIn,WindDirection,WindDirectionDegrees,WindSpeedMPH,WindSpeedGustMPH,Humidity,HourlyPrecipIn,Conditions,Clouds,dailyrainin,SoftwareType,DateUTC
2013-06-20 00:00:00,68.5,53.2,30.12,NNW,342,2.2,2.2,58,0.00,,---,0.00,VWS V14.01,2013-06-20 04:00:00,
2013-06-20 00:01:00,68.5,53.2,30.12,NNW,342,2.2,2.2,58,0.00,,---,0.00,VWS V14.01,2013-06-20 04:01:00,
2013-06-20 00:06:00,68.5,53.2,30.12,North,353,4.0,4.0,58,0.00,,---,0.00,VWS V14.01,2013-06-20 04:06:00,
2013-06-20 00:11:00,68.4,53.5,30.12,North,353,2.7,2.7,59,0.00,,---,0.00,VWS V14.01,2013-06-20 04:11:00,
2013-06-20 00:16:00,68.2,53.8,30.12,NE,34,0.0,0.0,60,0.00,,---,0.00,VWS V14.01,2013-06-20 04:16:00,
2013-06-20 00:21:00,68.2,54.2,30.12,NE,35,0.0,3.1,61,0.00,,---,0.00,VWS V14.01,2013-06-20 04:21:00,
2013-06-20 00:26:00,68.2,54.2,30.12,NNE,18,2.2,2.2,61,0.00,,---,0.00,VWS V14.01,2013-06-20 04:26:00,
2013-06-20 00:31:00,68.2,54.2,30.12,North,7,0.0,0.0,61,0.00,,---,0.00,VWS V14.01,2013-06-20 04:31:00,
2013-06-20 00:36:00,68.2,54.7,30.12,NNE,29,4.9,4.9,62,0.00,,---,0.00,VWS V14.01,2013-06-20 04:36:00,
2013-06-20 00:41:00,68.2,55.1,30.12,NNE,28,4.9,4.9,63,0.00,,---,0.00,VWS V14.01,2013-06-20 04:41:00,
2013-06-20 00:46:00,68.0,55.4,30.12,North,353,2.7,2.7,64,0.00,,---,0.00,VWS V14.01,2013-06-20 04:46:00,
2013-06-20 00:47:00,68.0,55.4,30.12,North,353,2.7,2.7,64,0.00,,---,0.00,VWS V14.01,2013-06-20 04:47:00,
2013-06-20 00:51:00,68.0,55.4,30.12,NNW,330,0.0,3.1,64,0.00,,---,0.00,VWS V14.01,2013-06-20 04:51:00,
2013-06-20 00:52:00,68.0,55.4,30.12,NNW,330,0.0,3.1,64,0.00,,---,0.00,VWS V14.01,2013-06-20 04:52:00,
2013-06-20 00:56:00,68.0,55.4,30.12,NNW,333,3.1,3.1,64,0.00,,---,0.00,VWS V14.01,2013-06-20 04:56:00,
2013-06-20 00:57:00,68.0,55.4,30.12,NNW,333,3.1,3.1,64,0.00,,---,0.00,VWS V14.01,2013-06-20 04:57:00,
2013-06-20 01:01:00,67.8,55.6,30.12,NNE,27,0.0,0.0,65,0.00,,---,0.00,VWS V14.01,2013-06-20 05:01:00,
2013-06-20 01:02:00,67.8,55.6,30.12,NNE,27,0.0,0.0,65,0.00,,---,0.00,VWS V14.01,2013-06-20 05:02:00,
2013-06-20 01:06:00,67.8,56.1,30.12,NNW,348,3.6,3.6,66,0.00,,---,0.00,VWS V14.01,2013-06-20 05:06:00,
2013-06-20 01:07:00,67.8,56.1,30.12,WNW,288,3.6,3.6,66,0.00,,---,0.00,VWS V14.01,2013-06-20 05:07:00,
2013-06-20 01:11:00,67.8,56.1,30.12,NNW,340,0.0,0.0,66,0.00,,---,0.00,VWS V14.01,2013-06-20 05:11:00,
2013-06-20 01:12:00,67.8,56.1,30.12,NW,320,0.0,0.0,66,0.00,,---,0.00,VWS V14.01,2013-06-20 05:12:00,
2013-06-20 01:16:00,67.6,55.9,30.12,NW,326,2.2,2.2,66,0.00,,---,0.00,VWS V14.01,2013-06-20 05:16:00,
2013-06-20 01:17:00,67.6,55.9,30.12,NW,326,2.2,2.2,66,0.00,,---,0.00,VWS V14.01,2013-06-20 05:17:00,
2013-06-20 01:21:00,67.5,55.7,30.12,NNW,342,0.0,0.0,66,0.00,,---,0.00,VWS V14.01,2013-06-20 05:21:00,
2013-06-20 01:22:00,67.5,55.7,30.12,NNW,342,0.0,0.0,66,0.00,,---,0.00,VWS V14.01,2013-06-20 05:22:00,
2013-06-20 01:26:00,67.5,55.7,30.12,NNE,31,2.2,2.2,66,0.00,,---,0.00,VWS V14.01,2013-06-20 05:26:00,
2013-06-20 01:27:00,67.5,55.7,30.12,NW,307,4.5,4.5,66,0.00,,---,0.00,VWS V14.01,2013-06-20 05:27:00,
2013-06-20 01:32:00,67.3,55.5,30.12,North,5,3.6,3.6,66,0.00,,---,0.00,VWS V14.01,2013-06-20 05:32:00,
2013-06-20 01:37:00,67.1,55.4,30.09,North,0,2.2,3.1,66,0.00,,---,0.00,VWS V14.01,2013-06-20 05:37:00,
2013-06-20 01:42:00,67.1,55.8,30.09,North,10,4.0,4.0,67,0.00,,---,0.00,VWS V14.01,2013-06-20 05:42:00,
2013-06-20 01:47:00,66.9,56.0,30.09,NW,310,2.7,3.6,68,0.00,,---,0.00,VWS V14.01,2013-06-20 05:47:00,
2013-06-20 01:52:00,66.7,55.8,30.09,North,353,2.2,2.7,68,0.00,,---,0.00,VWS V14.01,2013-06-20 05:52:00,
2013-06-20 01:57:00,66.7,56.3,30.09,North,3,0.0,0.0,69,0.00,,---,0.00,VWS V14.01,2013-06-20 05:57:00,
2013-06-20 02:02:00,66.7,56.3,30.09,NNW,343,0.0,0.0,69,0.00,,---,0.00,VWS V14.01,2013-06-20 06:02:00,
2013-06-20 02:03:00,66.7,56.3,30.09,NNW,343,0.0,0.0,69,0.00,,---,0.00,VWS V14.01,2013-06-20 06:03:00,
2013-06-20 02:07:00,66.6,56.1,30.09,WNW,302,3.1,3.1,69,0.00,,---,0.00,VWS V14.01,2013-06-20 06:07:00,
2013-06-20 02:08:00,66.6,56.1,30.09,WNW,302,2.2,3.1,69,0.00,,---,0.00,VWS V14.01,2013-06-20 06:08:00,
2013-06-20 02:12:00,66.6,56.5,30.12,NNW,344,0.0,0.0,70,0.00,,---,0.00,VWS V14.01,2013-06-20 06:12:00,
2013-06-20 02:13:00,66.6,56.5,30.12,NNW,344,0.0,0.0,70,0.00,,---,0.00,VWS V14.01,2013-06-20 06:13:00,
2013-06-20 02:17:00,66.4,56.3,30.12,North,357,0.0,0.0,70,0.00,,---,0.00,VWS V14.01,2013-06-20 06:17:00,
2013-06-20 02:18:00,66.4,56.3,30.12,NNW,342,0.0,0.0,70,0.00,,---,0.00,VWS V14.01,2013-06-20 06:18:00,
2013-06-20 02:22:00,66.4,56.3,30.12,North,0,0.0,0.0,70,0.00,,---,0.00,VWS V14.01,2013-06-20 06:22:00,
2013-06-20 02:23:00,66.4,56.3,30.12,North,0,0.0,0.0,70,0.00,,---,0.00,VWS V14.01,2013-06-20 06:23:00,
2013-06-20 02:27:00,66.4,56.7,30.12,North,353,0.0,0.0,71,0.00,,---,0.00,VWS V14.01,2013-06-20 06:27:00,
2013-06-20 02:28:00,66.4,56.7,30.12,North,353,0.0,0.0,71,0.00,,---,0.00,VWS V14.01,2013-06-20 06:28:00,
2013-06-20 02:32:00,66.4,57.1,30.12,NNW,343,4.0,4.0,72,0.00,,---,0.00,VWS V14.01,2013-06-20 06:32:00,
2013-06-20 02:33:00,66.4,57.1,30.12,NNW,343,4.0,4.0,72,0.00,,---,0.00,VWS V14.01,2013-06-20 06:33:00,
2013-06-20 02:37:00,66.4,57.1,30.12,North,6,0.0,0.0,72,0.00,,---,0.00,VWS V14.01,2013-06-20 06:37:00,
2013-06-20 02:38:00,66.4,57.1,30.12,North,6,0.0,0.0,72,0.00,,---,0.00,VWS V14.01,2013-06-20 06:38:00,
2013-06-20 02:42:00,66.4,57.1,30.12,North,3,3.1,3.1,72,0.00,,---,0.00,VWS V14.01,2013-06-20 06:42:00,
2013-06-20 02:43:00,66.4,57.1,30.12,NW,319,2.7,3.1,72,0.00,,---,0.00,VWS V14.01,2013-06-20 06:43:00,
2013-06-20 02:47:00,66.4,57.1,30.12,NW,314,0.0,3.1,72,0.00,,---,0.00,VWS V14.01,2013-06-20 06:47:00,
2013-06-20 02:48:00,66.4,57.1,30.12,NW,314,0.0,3.1,72,0.00,,---,0.00,VWS V14.01,2013-06-20 06:48:00,
2013-06-20 02:53:00,66.4,57.1,30.12,NW,323,2.2,2.2,72,0.00,,---,0.00,VWS V14.01,2013-06-20 06:53:00,
2013-06-20 02:58:00,66.2,57.7,30.12,North,353,2.7,2.7,74,0.00,,---,0.00,VWS V14.01,2013-06-20 06:58:00,
2013-06-20 03:03:00,66.2,57.7,30.12,North,9,3.1,3.1,74,0.00,,---,0.00,VWS V14.01,2013-06-20 07:03:00,
2013-06-20 03:08:00,66.2,58.0,30.12,NNW,328,5.4,5.4,75,0.00,,---,0.00,VWS V14.01,2013-06-20 07:08:00,
2013-06-20 03:13:00,66.2,58.0,30.12,NNW,345,3.1,3.1,75,0.00,,---,0.00,VWS V14.01,2013-06-20 07:13:00,
2013-06-20 03:18:00,66.2,58.4,30.12,NNW,331,2.7,2.7,76,0.00,,---,0.00,VWS V14.01,2013-06-20 07:18:00,
2013-06-20 03:23:00,66.2,58.4,30.12,NW,322,4.0,4.0,76,0.00,,---,0.00,VWS V14.01,2013-06-20 07:23:00,
2013-06-20 03:24:00,66.2,58.4,30.12,NW,322,4.0,4.0,76,0.00,,---,0.00,VWS V14.01,2013-06-20 07:24:00,
2013-06-20 03:28:00,66.2,58.4,30.12,NW,312,3.1,3.1,76,0.00,,---,0.00,VWS V14.01,2013-06-20 07:28:00,
2013-06-20 03:29:00,66.2,58.8,30.12,NW,312,3.1,3.1,77,0.00,,---,0.00,VWS V14.01,2013-06-20 07:29:00,
2013-06-20 03:33:00,66.2,59.2,30.12,NNW,342,4.9,4.9,78,0.00,,---,0.00,VWS V14.01,2013-06-20 07:33:00,
2013-06-20 03:34:00,66.2,59.2,30.12,NNW,334,5.4,5.4,78,0.00,,---,0.00,VWS V14.01,2013-06-20 07:34:00,
2013-06-20 03:38:00,66.2,59.2,30.12,North,353,4.0,4.0,78,0.00,,---,0.00,VWS V14.01,2013-06-20 07:38:00,
2013-06-20 03:39:00,66.2,59.2,30.12,NNW,330,2.7,4.0,78,0.00,,---,0.00,VWS V14.01,2013-06-20 07:39:00,
2013-06-20 03:43:00,66.2,59.2,30.12,NNW,335,5.8,5.8,78,0.00,,---,0.00,VWS V14.01,2013-06-20 07:43:00,
2013-06-20 03:44:00,66.2,59.2,30.12,NNW,335,5.8,5.8,78,0.00,,---,0.00,VWS V14.01,2013-06-20 07:44:00,
2013-06-20 03:48:00,66.2,59.2,30.12,North,350,6.3,6.3,78,0.00,,---,0.00,VWS V14.01,2013-06-20 07:48:00,
2013-06-20 03:49:00,66.2,59.2,30.12,North,350,6.3,6.3,78,0.00,,---,0.00,VWS V14.01,2013-06-20 07:49:00,
2013-06-20 03:53:00,66.2,59.9,30.12,NNW,329,5.8,5.8,80,0.00,,---,0.00,VWS V14.01,2013-06-20 07:53:00,
2013-06-20 03:54:00,66.2,59.9,30.12,North,4,5.4,5.8,80,0.00,,---,0.00,VWS V14.01,2013-06-20 07:54:00,
2013-06-20 03:58:00,66.2,59.9,30.12,NW,313,4.0,4.0,80,0.00,,---,0.00,VWS V14.01,2013-06-20 07:58:00,
2013-06-20 03:59:00,66.2,59.9,30.12,NW,313,4.0,4.0,80,0.00,,---,0.00,VWS V14.01,2013-06-20 07:59:00,
2013-06-20 04:03:00,66.2,59.9,30.12,NNW,345,3.1,3.1,80,0.00,,---,0.00,VWS V14.01,2013-06-20 08:03:00,
2013-06-20 04:04:00,66.2,59.9,30.12,NNW,345,3.1,3.1,80,0.00,,---,0.00,VWS V14.01,2013-06-20 08:04:00,
2013-06-20 04:08:00,66.2,59.9,30.12,NNW,334,5.8,5.8,80,0.00,,---,0.00,VWS V14.01,2013-06-20 08:08:00,
2013-06-20 04:09:00,66.2,59.9,30.12,NNW,334,5.8,5.8,80,0.00,,---,0.00,VWS V14.01,2013-06-20 08:09:00,
2013-06-20 04:13:00,66.2,59.9,30.12,NNW,343,8.1,8.1,80,0.00,,---,0.00,VWS V14.01,2013-06-20 08:13:00,
2013-06-20 04:14:00,66.2,59.9,30.12,NW,326,7.6,8.1,80,0.00,,---,0.00,VWS V14.01,2013-06-20 08:14:00,
2013-06-20 04:18:00,66.0,60.4,30.12,North,0,2.7,2.7,82,0.00,,---,0.00,VWS V14.01,2013-06-20 08:18:00,
2013-06-20 04:19:00,66.0,60.4,30.12,North,0,2.7,2.7,82,0.00,,---,0.00,VWS V14.01,2013-06-20 08:19:00,
2013-06-20 04:23:00,66.0,60.4,30.09,NW,312,4.0,4.0,82,0.00,,---,0.00,VWS V14.01,2013-06-20 08:23:00,
2013-06-20 04:24:00,65.8,60.2,30.09,NW,312,4.0,4.0,82,0.00,,---,0.00,VWS V14.01,2013-06-20 08:24:00,
2013-06-20 04:28:00,65.8,60.2,30.09,NW,308,5.4,5.4,82,0.00,,---,0.00,VWS V14.01,2013-06-20 08:28:00,
2013-06-20 04:29:00,65.8,60.2,30.09,NNW,346,5.4,5.4,82,0.00,,---,0.00,VWS V14.01,2013-06-20 08:29:00,
2013-06-20 04:33:00,65.8,60.5,30.09,NNW,332,3.1,3.1,83,0.00,,---,0.00,VWS V14.01,2013-06-20 08:33:00,
2013-06-20 04:34:00,65.8,60.5,30.09,NNW,332,3.1,3.1,83,0.00,,---,0.00,VWS V14.01,2013-06-20 08:34:00,
2013-06-20 04:38:00,65.8,60.5,30.12,NNW,332,6.3,6.3,83,0.00,,---,0.00,VWS V14.01,2013-06-20 08:38:00,
2013-06-20 04:39:00,65.8,60.5,30.12,NNW,332,6.3,6.3,83,0.00,,---,0.00,VWS V14.01,2013-06-20 08:39:00,
2013-06-20 04:40:00,65.8,60.5,30.12,NNE,30,6.3,6.3,83,0.00,,---,0.00,VWS V14.01,2013-06-20 08:40:00,
2013-06-20 04:44:00,65.8,60.5,30.12,North,1,6.3,6.3,83,0.00,,---,0.00,VWS V14.01,2013-06-20 08:44:00,
2013-06-20 04:45:00,65.8,60.5,30.12,North,349,6.7,6.7,83,0.00,,---,0.00,VWS V14.01,2013-06-20 08:45:00,
2013-06-20 04:49:00,65.8,60.5,30.12,NNW,331,6.3,6.3,83,0.00,,---,0.00,VWS V14.01,2013-06-20 08:49:00,
2013-06-20 04:50:00,65.8,60.5,30.12,NNW,331,6.3,6.3,83,0.00,,---,0.00,VWS V14.01,2013-06-20 08:50:00,
2013-06-20 04:54:00,65.8,60.5,30.12,NNW,327,7.6,7.6,83,0.00,,---,0.00,VWS V14.01,2013-06-20 08:54:00,
2013-06-20 04:55:00,65.8,60.5,30.12,NW,318,3.6,7.6,83,0.00,,---,0.00,VWS V14.01,2013-06-20 08:55:00,
2013-06-20 04:59:00,65.8,60.5,30.12,NW,306,3.6,3.6,83,0.00,,---,0.00,VWS V14.01,2013-06-20 08:59:00,
2013-06-20 05:00:00,65.8,60.5,30.12,NW,319,5.4,5.4,83,0.00,,---,0.00,VWS V14.01,2013-06-20 09:00:00,
2013-06-20 05:04:00,65.7,60.4,30.12,North,357,5.8,5.8,83,0.00,,---,0.00,VWS V14.01,2013-06-20 09:04:00,
2013-06-20 05:05:00,65.7,60.7,30.12,North,357,5.8,5.8,84,0.00,,---,0.00,VWS V14.01,2013-06-20 09:05:00,
2013-06-20 05:09:00,65.7,60.7,30.12,NW,325,4.0,4.0,84,0.00,,---,0.00,VWS V14.01,2013-06-20 09:09:00,
2013-06-20 05:10:00,65.7,60.7,30.12,NNW,348,3.1,4.0,84,0.00,,---,0.00,VWS V14.01,2013-06-20 09:10:00,
2013-06-20 05:14:00,65.7,60.7,30.12,NNW,329,5.8,5.8,84,0.00,,---,0.00,VWS V14.01,2013-06-20 09:14:00,
2013-06-20 05:15:00,65.7,60.7,30.12,NNW,329,5.8,5.8,84,0.00,,---,0.00,VWS V14.01,2013-06-20 09:15:00,
2013-06-20 05:19:00,65.7,60.7,30.12,NW,319,3.6,3.6,84,0.00,,---,0.00,VWS V14.01,2013-06-20 09:19:00,
2013-06-20 05:20:00,65.7,60.7,30.12,NW,319,3.6,3.6,84,0.00,,---,0.00,VWS V14.01,2013-06-20 09:20:00,
2013-06-20 05:24:00,65.7,60.7,30.12,NNW,335,5.8,5.8,84,0.00,,---,0.00,VWS V14.01,2013-06-20 09:24:00,
2013-06-20 05:25:00,65.7,60.7,30.12,NNW,345,3.6,5.8,84,0.00,,---,0.00,VWS V14.01,2013-06-20 09:25:00,
2013-06-20 05:29:00,65.7,61.0,30.12,NW,322,3.1,3.1,85,0.00,,---,0.00,VWS V14.01,2013-06-20 09:29:00,
2013-06-20 05:30:00,65.7,61.0,30.12,NW,322,3.1,3.1,85,0.00,,---,0.00,VWS V14.01,2013-06-20 09:30:00,
2013-06-20 05:34:00,65.7,61.0,30.12,North,357,0.0,0.0,85,0.00,,---,0.00,VWS V14.01,2013-06-20 09:34:00,
2013-06-20 05:35:00,65.7,61.0,30.12,North,357,0.0,0.0,85,0.00,,---,0.00,VWS V14.01,2013-06-20 09:35:00,
2013-06-20 05:39:00,65.7,61.0,30.12,NNW,327,3.6,3.6,85,0.00,,---,0.00,VWS V14.01,2013-06-20 09:39:00,
2013-06-20 05:40:00,65.7,61.0,30.12,WNW,291,3.6,3.6,85,0.00,,---,0.00,VWS V14.01,2013-06-20 09:40:00,
2013-06-20 05:44:00,65.7,61.0,30.12,North,0,4.0,4.0,85,0.00,,---,0.00,VWS V14.01,2013-06-20 09:44:00,
2013-06-20 05:45:00,65.7,61.0,30.12,North,0,4.0,4.0,85,0.00,,---,0.00,VWS V14.01,2013-06-20 09:45:00,
2013-06-20 05:49:00,65.5,60.9,30.12,NW,322,3.6,3.6,85,0.00,,---,0.00,VWS V14.01,2013-06-20 09:49:00,
2013-06-20 05:50:00,65.5,60.9,30.12,NW,322,3.6,3.6,85,0.00,,---,0.00,VWS V14.01,2013-06-20 09:50:00,
2013-06-20 05:51:00,65.5,60.9,30.12,NW,322,3.6,3.6,85,0.00,,---,0.00,VWS V14.01,2013-06-20 09:51:00,
2013-06-20 05:54:00,65.7,61.0,30.12,WNW,303,3.1,3.1,85,0.00,,---,0.00,VWS V14.01,2013-06-20 09:54:00,
2013-06-20 05:55:00,65.7,61.0,30.12,NNW,334,8.1,8.1,85,0.00,,---,0.00,VWS V14.01,2013-06-20 09:55:00,
2013-06-20 05:56:00,65.7,61.0,30.12,NNW,334,8.1,8.1,85,0.00,,---,0.00,VWS V14.01,2013-06-20 09:56:00,
2013-06-20 05:59:00,65.7,61.0,30.12,NNW,335,5.8,5.8,85,0.00,,---,0.00,VWS V14.01,2013-06-20 09:59:00,
2013-06-20 06:00:00,65.7,61.0,30.12,NNW,335,5.8,5.8,85,0.00,,---,0.00,VWS V14.01,2013-06-20 10:00:00,
2013-06-20 06:01:00,65.7,61.0,30.12,North,357,5.4,5.8,85,0.00,,---,0.00,VWS V14.01,2013-06-20 10:01:00,
2013-06-20 06:04:00,65.7,61.4,30.12,NNW,327,3.6,3.6,86,0.00,,---,0.00,VWS V14.01,2013-06-20 10:04:00,
2013-06-20 06:05:00,65.7,61.4,30.12,NNW,327,3.6,3.6,86,0.00,,---,0.00,VWS V14.01,2013-06-20 10:05:00,
2013-06-20 06:06:00,65.7,61.4,30.12,NNW,327,3.6,3.6,86,0.00,,---,0.00,VWS V14.01,2013-06-20 10:06:00,
2013-06-20 06:09:00,65.7,61.7,30.12,North,353,8.1,8.1,87,0.00,,---,0.00,VWS V14.01,2013-06-20 10:09:00,
2013-06-20 06:10:00,65.7,61.7,30.12,North,0,4.0,4.0,87,0.00,,---,0.00,VWS V14.01,2013-06-20 10:10:00,
2013-06-20 06:11:00,65.7,61.7,30.12,North,0,4.0,4.0,87,0.00,,---,0.00,VWS V14.01,2013-06-20 10:11:00,
2013-06-20 06:14:00,65.7,61.7,30.12,North,1,4.9,4.9,87,0.00,,---,0.00,VWS V14.01,2013-06-20 10:14:00,
2013-06-20 06:15:00,65.7,61.7,30.12,North,1,4.9,4.9,87,0.00,,---,0.00,VWS V14.01,2013-06-20 10:15:00,
2013-06-20 06:16:00,65.7,61.7,30.12,North,1,4.9,4.9,87,0.00,,---,0.00,VWS V14.01,2013-06-20 10:16:00,
2013-06-20 06:19:00,65.7,61.7,30.12,North,350,7.6,7.6,87,0.00,,---,0.00,VWS V14.01,2013-06-20 10:19:00,
2013-06-20 06:20:00,65.7,61.7,30.12,North,350,7.6,7.6,87,0.00,,---,0.00,VWS V14.01,2013-06-20 10:20:00,
2013-06-20 06:21:00,65.7,61.7,30.12,North,350,7.6,7.6,87,0.00,,---,0.00,VWS V14.01,2013-06-20 10:21:00,
2013-06-20 06:24:00,65.7,61.7,30.15,NNW,335,5.8,5.8,87,0.00,,---,0.00,VWS V14.01,2013-06-20 10:24:00,
2013-06-20 06:25:00,65.8,62.2,30.15,NNW,335,5.8,5.8,88,0.00,,---,0.00,VWS V14.01,2013-06-20 10:25:00,
2013-06-20 06:26:00,65.8,62.2,30.15,NNW,335,5.8,5.8,88,0.00,,---,0.00,VWS V14.01,2013-06-20 10:26:00,
2013-06-20 06:30:00,65.8,62.2,30.15,NNE,15,3.1,8.3,88,0.00,,---,0.00,VWS V14.01,2013-06-20 10:30:00,
2013-06-20 06:31:00,65.8,62.2,30.15,NNE,15,3.1,3.1,88,0.00,,---,0.00,VWS V14.01,2013-06-20 10:31:00,
2013-06-20 06:35:00,65.8,62.2,30.15,NW,305,8.7,8.7,88,0.00,,---,0.00,VWS V14.01,2013-06-20 10:35:00,
2013-06-20 06:36:00,65.8,62.2,30.15,NW,305,8.7,8.7,88,0.00,,---,0.00,VWS V14.01,2013-06-20 10:36:00,
2013-06-20 06:40:00,65.8,62.2,30.15,NW,315,3.6,3.6,88,0.00,,---,0.00,VWS V14.01,2013-06-20 10:40:00,
2013-06-20 06:41:00,65.8,62.5,30.15,North,353,6.3,6.3,89,0.00,,---,0.00,VWS V14.01,2013-06-20 10:41:00,
2013-06-20 06:45:00,66.0,62.7,30.15,North,353,6.3,6.3,89,0.00,,---,0.00,VWS V14.01,2013-06-20 10:45:00,
2013-06-20 06:46:00,66.0,62.7,30.15,North,4,12.3,12.3,89,0.00,,---,0.00,VWS V14.01,2013-06-20 10:46:00,
2013-06-20 06:50:00,66.0,62.7,30.15,NW,309,8.1,12.3,89,0.00,,---,0.00,VWS V14.01,2013-06-20 10:50:00,
2013-06-20 06:51:00,66.2,62.9,30.15,NW,309,8.1,8.1,89,0.00,,---,0.00,VWS V14.01,2013-06-20 10:51:00,
2013-06-20 06:55:00,66.2,62.9,30.15,NW,309,8.1,8.1,89,0.00,,---,0.00,VWS V14.01,2013-06-20 10:55:00,
2013-06-20 06:56:00,66.2,62.9,30.15,West,274,3.1,3.1,89,0.00,,---,0.00,VWS V14.01,2013-06-20 10:56:00,
2013-06-20 07:00:00,66.2,62.9,30.15,NNW,340,3.6,3.6,89,0.00,,---,0.00,VWS V14.01,2013-06-20 11:00:00,
2013-06-20 07:01:00,66.2,62.9,30.15,NNW,340,3.6,3.6,89,0.00,,---,0.00,VWS V14.01,2013-06-20 11:01:00,
2013-06-20 07:02:00,66.2,62.9,30.15,NNW,340,3.6,3.6,89,0.00,,---,0.00,VWS V14.01,2013-06-20 11:02:00,
2013-06-20 07:05:00,66.4,63.0,30.15,NNE,22,7.6,7.6,89,0.00,,---,0.00,VWS V14.01,2013-06-20 11:05:00,
2013-06-20 07:06:00,66.4,63.0,30.15,NNE,22,7.6,7.6,89,0.00,,---,0.00,VWS V14.01,2013-06-20 11:06:00,
2013-06-20 07:07:00,66.4,63.0,30.15,North,353,5.8,5.8,89,0.00,,---,0.00,VWS V14.01,2013-06-20 11:07:00,
2013-06-20 07:10:00,66.4,63.0,30.15,NNW,337,4.0,4.0,89,0.00,,---,0.00,VWS V14.01,2013-06-20 11:10:00,
2013-06-20 07:11:00,66.4,63.0,30.15,NNW,337,4.0,4.0,89,0.00,,---,0.00,VWS V14.01,2013-06-20 11:11:00,
2013-06-20 07:12:00,66.4,63.0,30.15,NNW,337,4.0,4.0,89,0.00,,---,0.00,VWS V14.01,2013-06-20 11:12:00,
2013-06-20 07:15:00,66.4,63.0,30.15,NNE,23,3.6,4.9,89,0.00,,---,0.00,VWS V14.01,2013-06-20 11:15:00,
2013-06-20 07:16:00,66.4,63.0,30.15,NNE,23,3.6,4.9,89,0.00,,---,0.00,VWS V14.01,2013-06-20 11:16:00,
2013-06-20 07:17:00,66.7,63.7,30.15,NW,325,7.6,7.6,90,0.00,,---,0.00,VWS V14.01,2013-06-20 11:17:00,
2013-06-20 07:20:00,66.7,63.7,30.15,NW,325,7.6,7.6,90,0.00,,---,0.00,VWS V14.01,2013-06-20 11:20:00,
2013-06-20 07:21:00,66.7,63.7,30.15,NW,325,7.6,7.6,90,0.00,,---,0.00,VWS V14.01,2013-06-20 11:21:00,
2013-06-20 07:22:00,66.9,63.9,30.15,NNW,330,3.6,7.6,90,0.00,,---,0.00,VWS V14.01,2013-06-20 11:22:00,
2013-06-20 07:25:00,67.1,64.1,30.15,NW,317,2.7,2.7,90,0.00,,---,0.00,VWS V14.01,2013-06-20 11:25:00,
2013-06-20 07:26:00,67.1,64.1,30.15,NNW,330,6.3,6.3,90,0.00,,---,0.00,VWS V14.01,2013-06-20 11:26:00,
2013-06-20 07:27:00,67.1,64.1,30.15,NNW,345,8.1,8.1,90,0.00,,---,0.00,VWS V14.01,2013-06-20 11:27:00,
2013-06-20 07:31:00,67.3,63.9,30.15,NNW,341,7.6,8.1,89,0.00,,---,0.00,VWS V14.01,2013-06-20 11:31:00,
2013-06-20 07:32:00,67.3,63.9,30.15,North,357,4.0,7.6,89,0.00,,---,0.00,VWS V14.01,2013-06-20 11:32:00,
2013-06-20 07:36:00,67.5,64.1,30.15,North,7,6.7,6.7,89,0.00,,---,0.00,VWS V14.01,2013-06-20 11:36:00,
2013-06-20 07:37:00,67.5,64.1,30.15,North,7,6.7,6.7,89,0.00,,---,0.00,VWS V14.01,2013-06-20 11:37:00,
2013-06-20 07:41:00,68.0,64.3,30.15,NNW,348,5.4,5.4,88,0.00,,---,0.00,VWS V14.01,2013-06-20 11:41:00,
2013-06-20 07:42:00,68.0,64.3,30.15,NNW,348,5.4,5.4,88,0.00,,---,0.00,VWS V14.01,2013-06-20 11:42:00,
2013-06-20 07:46:00,68.4,64.3,30.15,WNW,300,5.4,5.8,87,0.00,,---,0.00,VWS V14.01,2013-06-20 11:46:00,
2013-06-20 07:47:00,68.4,64.3,30.15,WNW,300,5.4,5.4,87,0.00,,---,0.00,VWS V14.01,2013-06-20 11:47:00,
2013-06-20 07:51:00,68.4,64.3,30.15,North,1,3.6,3.6,87,0.00,,---,0.00,VWS V14.01,2013-06-20 11:51:00,
2013-06-20 07:52:00,68.4,64.3,30.15,North,1,3.6,3.6,87,0.00,,---,0.00,VWS V14.01,2013-06-20 11:52:00,
2013-06-20 07:56:00,69.1,64.1,30.15,North,1,5.8,5.8,84,0.00,,---,0.00,VWS V14.01,2013-06-20 11:56:00,
2013-06-20 07:57:00,69.1,64.1,30.15,North,1,5.8,5.8,84,0.00,,---,0.00,VWS V14.01,2013-06-20 11:57:00,
2013-06-20 08:01:00,69.8,62.6,30.15,NNW,340,8.1,8.1,78,0.00,,---,0.00,VWS V14.01,2013-06-20 12:01:00,
2013-06-20 08:02:00,69.8,62.6,30.15,WNW,300,5.8,8.1,78,0.00,,---,0.00,VWS V14.01,2013-06-20 12:02:00,
2013-06-20 08:03:00,69.8,62.6,30.15,WNW,300,5.8,8.1,78,0.00,,---,0.00,VWS V14.01,2013-06-20 12:03:00,
2013-06-20 08:06:00,70.0,60.2,30.15,North,1,3.6,3.6,71,0.00,,---,0.00,VWS V14.01,2013-06-20 12:06:00,
2013-06-20 08:07:00,70.2,59.9,30.15,NE,47,2.7,2.7,70,0.00,,---,0.00,VWS V14.01,2013-06-20 12:07:00,
2013-06-20 08:08:00,70.2,59.9,30.15,NE,47,2.7,2.7,70,0.00,,---,0.00,VWS V14.01,2013-06-20 12:08:00,
2013-06-20 08:11:00,70.2,59.5,30.15,NNE,14,4.0,4.0,69,0.00,,---,0.00,VWS V14.01,2013-06-20 12:11:00,
2013-06-20 08:12:00,70.2,59.5,30.15,West,264,2.7,2.7,69,0.00,,---,0.00,VWS V14.01,2013-06-20 12:12:00,
2013-06-20 08:13:00,70.2,59.5,30.15,West,264,2.7,2.7,69,0.00,,---,0.00,VWS V14.01,2013-06-20 12:13:00,
2013-06-20 08:16:00,70.5,58.2,30.15,North,353,3.6,3.6,65,0.00,,---,0.00,VWS V14.01,2013-06-20 12:16:00,
2013-06-20 08:17:00,70.5,58.2,30.15,NW,310,4.9,4.9,65,0.00,,---,0.00,VWS V14.01,2013-06-20 12:17:00,
2013-06-20 08:18:00,70.5,58.2,30.15,NW,310,4.9,4.9,65,0.00,,---,0.00,VWS V14.01,2013-06-20 12:18:00,
2013-06-20 08:21:00,70.5,58.2,30.15,NW,313,2.2,3.6,65,0.00,,---,0.00,VWS V14.01,2013-06-20 12:21:00,
2013-06-20 08:23:00,70.5,58.2,30.15,ENE,76,4.0,4.0,65,0.00,,---,0.00,VWS V14.01,2013-06-20 12:23:00,
2013-06-20 08:26:00,70.7,56.2,30.15,NNW,335,5.4,5.4,60,0.00,,---,0.00,VWS V14.01,2013-06-20 12:26:00,
2013-06-20 08:27:00,70.7,56.2,30.15,NNW,335,5.4,5.4,60,0.00,,---,0.00,VWS V14.01,2013-06-20 12:27:00,
2013-06-20 08:28:00,70.7,56.2,30.15,North,1,6.3,6.3,60,0.00,,---,0.00,VWS V14.01,2013-06-20 12:28:00,
2013-06-20 08:31:00,70.9,55.8,30.15,North,0,4.0,4.0,59,0.00,,---,0.00,VWS V14.01,2013-06-20 12:31:00,
2013-06-20 08:32:00,70.9,55.8,30.15,North,0,4.0,4.0,59,0.00,,---,0.00,VWS V14.01,2013-06-20 12:32:00,
2013-06-20 08:33:00,71.1,55.5,30.15,North,353,5.8,5.8,58,0.00,,---,0.00,VWS V14.01,2013-06-20 12:33:00,
2013-06-20 08:36:00,71.2,55.2,30.18,North,349,8.3,8.3,57,0.00,,---,0.00,VWS V14.01,2013-06-20 12:36:00,
2013-06-20 08:37:00,71.2,55.2,30.18,North,349,8.3,8.3,57,0.00,,---,0.00,VWS V14.01,2013-06-20 12:37:00,
2013-06-20 08:38:00,71.2,55.2,30.18,NW,314,5.4,8.3,57,0.00,,---,0.00,VWS V14.01,2013-06-20 12:38:00,
2013-06-20 08:41:00,71.6,54.6,30.18,North,357,5.4,5.4,55,0.00,,---,0.00,VWS V14.01,2013-06-20 12:41:00,
2013-06-20 08:42:00,71.6,54.6,30.18,North,357,5.4,5.4,55,0.00,,---,0.00,VWS V14.01,2013-06-20 12:42:00,
2013-06-20 08:43:00,71.6,54.6,30.18,North,357,5.4,5.4,55,0.00,,---,0.00,VWS V14.01,2013-06-20 12:43:00,
2013-06-20 08:46:00,71.6,54.6,30.18,North,353,4.0,4.0,55,0.00,,---,0.00,VWS V14.01,2013-06-20 12:46:00,
2013-06-20 08:47:00,71.6,54.6,30.18,North,353,4.0,4.0,55,0.00,,---,0.00,VWS V14.01,2013-06-20 12:47:00,
2013-06-20 08:48:00,71.6,54.6,30.18,NW,312,4.0,5.8,55,0.00,,---,0.00,VWS V14.01,2013-06-20 12:48:00,
2013-06-20 08:51:00,72.0,54.4,30.18,NNE,31,4.9,4.9,54,0.00,,---,0.00,VWS V14.01,2013-06-20 12:51:00,
2013-06-20 08:52:00,72.0,54.4,30.18,North,353,3.6,4.9,54,0.00,,---,0.00,VWS V14.01,2013-06-20 12:52:00,
2013-06-20 08:53:00,72.0,54.4,30.18,North,353,3.6,3.6,54,0.00,,---,0.00,VWS V14.01,2013-06-20 12:53:00,
2013-06-20 08:57:00,72.3,54.2,30.18,NNW,340,3.6,5.8,53,0.00,,---,0.00,VWS V14.01,2013-06-20 12:57:00,
2013-06-20 08:58:00,72.3,54.2,30.18,NNW,340,3.6,3.6,53,0.00,,---,0.00,VWS V14.01,2013-06-20 12:58:00,
2013-06-20 08:59:00,72.3,54.2,30.18,NW,315,7.2,7.2,53,0.00,,---,0.00,VWS V14.01,2013-06-20 12:59:00,
2013-06-20 09:02:00,72.5,53.9,30.18,NW,326,3.6,3.6,52,0.00,,---,0.00,VWS V14.01,2013-06-20 13:02:00,
2013-06-20 09:03:00,72.7,53.0,30.18,NE,35,7.6,7.6,50,0.00,,---,0.00,VWS V14.01,2013-06-20 13:03:00,
2013-06-20 09:04:00,72.7,53.0,30.18,NNE,23,10.5,10.5,50,0.00,,---,0.00,VWS V14.01,2013-06-20 13:04:00,
2013-06-20 09:07:00,72.9,52.6,30.18,NNE,25,5.4,5.4,49,0.00,,---,0.00,VWS V14.01,2013-06-20 13:07:00,
2013-06-20 09:08:00,72.9,52.6,30.18,ENE,65,3.6,3.6,49,0.00,,---,0.00,VWS V14.01,2013-06-20 13:08:00,
2013-06-20 09:09:00,72.9,52.6,30.18,ENE,65,3.6,3.6,49,0.00,,---,0.00,VWS V14.01,2013-06-20 13:09:00,
2013-06-20 09:12:00,72.9,52.6,30.18,ENE,62,2.7,4.0,49,0.00,,---,0.00,VWS V14.01,2013-06-20 13:12:00,
2013-06-20 09:13:00,72.9,52.6,30.18,NE,34,4.0,4.0,49,0.00,,---,0.00,VWS V14.01,2013-06-20 13:13:00,
2013-06-20 09:14:00,72.9,52.6,30.18,NNW,341,5.4,5.4,49,0.00,,---,0.00,VWS V14.01,2013-06-20 13:14:00,
2013-06-20 09:17:00,73.4,52.5,30.18,NW,320,4.5,4.5,48,0.00,,---,0.00,VWS V14.01,2013-06-20 13:17:00,
2013-06-20 09:18:00,73.6,53.3,30.18,NW,320,4.5,4.5,49,0.00,,---,0.00,VWS V14.01,2013-06-20 13:18:00,
2013-06-20 09:19:00,73.6,52.1,30.18,NW,320,4.5,4.5,47,0.00,,---,0.00,VWS V14.01,2013-06-20 13:19:00,
2013-06-20 09:22:00,73.6,52.1,30.18,NW,324,8.3,8.3,47,0.00,,---,0.00,VWS V14.01,2013-06-20 13:22:00,
2013-06-20 09:23:00,73.6,52.1,30.18,North,350,6.3,6.3,47,0.00,,---,0.00,VWS V14.01,2013-06-20 13:23:00,
2013-06-20 09:24:00,73.6,52.1,30.18,North,10,12.8,14.1,47,0.00,,---,0.00,VWS V14.01,2013-06-20 13:24:00,
2013-06-20 09:27:00,73.9,51.9,30.18,NW,311,4.0,6.3,46,0.00,,---,0.00,VWS V14.01,2013-06-20 13:27:00,
2013-06-20 09:28:00,74.1,52.0,30.18,NW,311,4.0,4.0,46,0.00,,---,0.00,VWS V14.01,2013-06-20 13:28:00,
2013-06-20 09:29:00,74.1,51.4,30.18,North,353,7.6,7.6,45,0.00,,---,0.00,VWS V14.01,2013-06-20 13:29:00,
2013-06-20 09:32:00,74.1,51.4,30.18,North,357,4.0,4.0,45,0.00,,---,0.00,VWS V14.01,2013-06-20 13:32:00,
2013-06-20 09:33:00,74.1,51.4,30.18,WNW,288,7.6,9.2,45,0.00,,---,0.00,VWS V14.01,2013-06-20 13:33:00,
2013-06-20 09:34:00,74.1,51.4,30.18,WNW,288,7.6,9.2,45,0.00,,---,0.00,VWS V14.01,2013-06-20 13:34:00,
2013-06-20 09:37:00,74.5,50.5,30.18,WNW,288,7.6,7.6,43,0.00,,---,0.00,VWS V14.01,2013-06-20 13:37:00,
2013-06-20 09:38:00,74.5,50.5,30.18,WNW,288,7.6,7.6,43,0.00,,---,0.00,VWS V14.01,2013-06-20 13:38:00,
2013-06-20 09:39:00,74.5,50.5,30.18,ENE,58,12.8,12.8,43,0.00,,---,0.00,VWS V14.01,2013-06-20 13:39:00,
2013-06-20 09:40:00,74.3,50.4,30.18,NNE,31,5.8,12.8,43,0.00,,---,0.00,VWS V14.01,2013-06-20 13:40:00,
2013-06-20 09:42:00,74.3,50.4,30.18,NNW,329,3.1,5.8,43,0.00,,---,0.00,VWS V14.01,2013-06-20 13:42:00,
2013-06-20 09:44:00,74.5,49.9,30.18,NNE,33,4.9,4.9,42,0.00,,---,0.00,VWS V14.01,2013-06-20 13:44:00,
2013-06-20 09:45:00,74.5,49.9,30.18,North,6,5.4,5.4,42,0.00,,---,0.00,VWS V14.01,2013-06-20 13:45:00,
2013-06-20 09:47:00,74.5,49.9,30.18,North,6,5.4,5.4,42,0.00,,---,0.00,VWS V14.01,2013-06-20 13:47:00,
2013-06-20 09:49:00,74.7,49.4,30.18,NE,36,3.6,3.6,41,0.00,,---,0.00,VWS V14.01,2013-06-20 13:49:00,
2013-06-20 09:50:00,74.7,49.4,30.18,North,353,5.4,5.4,41,0.00,,---,0.00,VWS V14.01,2013-06-20 13:50:00,
2013-06-20 09:52:00,74.8,49.6,30.18,NNW,334,8.3,10.5,41,0.00,,---,0.00,VWS V14.01,2013-06-20 13:52:00,
2013-06-20 09:54:00,74.8,49.6,30.18,NNW,346,4.9,8.3,41,0.00,,---,0.00,VWS V14.01,2013-06-20 13:54:00,
2013-06-20 09:55:00,74.8,49.6,30.18,NNW,346,4.9,4.9,41,0.00,,---,0.00,VWS V14.01,2013-06-20 13:55:00,
2013-06-20 09:57:00,74.8,49.6,30.18,SE,137,9.2,9.2,41,0.00,,---,0.00,VWS V14.01,2013-06-20 13:57:00,
2013-06-20 09:59:00,74.8,49.6,30.18,NE,55,6.3,6.3,41,0.00,,---,0.00,VWS V14.01,2013-06-20 13:59:00,
2013-06-20 10:00:00,74.8,49.6,30.18,NNW,328,5.8,6.3,41,0.00,,---,0.00,VWS V14.01,2013-06-20 14:00:00,
2013-06-20 10:02:00,74.8,49.6,30.18,SSE,164,2.7,2.7,41,0.00,,---,0.00,VWS V14.01,2013-06-20 14:02:00,
2013-06-20 10:04:00,75.2,49.9,30.18,NNE,15,3.1,3.1,41,0.00,,---,0.00,VWS V14.01,2013-06-20 14:04:00,
2013-06-20 10:05:00,75.2,48.6,30.18,NNE,15,3.1,3.1,39,0.00,,---,0.00,VWS V14.01,2013-06-20 14:05:00,
2013-06-20 10:07:00,75.2,49.2,30.18,North,6,10.1,10.1,40,0.00,,---,0.00,VWS V14.01,2013-06-20 14:07:00,
2013-06-20 10:09:00,75.4,48.7,30.18,NNW,348,9.2,9.2,39,0.00,,---,0.00,VWS V14.01,2013-06-20 14:09:00,
2013-06-20 10:10:00,75.4,49.4,30.18,NNE,29,5.8,5.8,40,0.00,,---,0.00,VWS V14.01,2013-06-20 14:10:00,
2013-06-20 10:12:00,75.4,49.4,30.18,NE,47,3.6,3.6,40,0.00,,---,0.00,VWS V14.01,2013-06-20 14:12:00,
2013-06-20 10:14:00,75.4,49.4,30.18,NE,47,3.6,3.6,40,0.00,,---,0.00,VWS V14.01,2013-06-20 14:14:00,
2013-06-20 10:15:00,75.4,49.4,30.18,ENE,75,8.3,8.3,40,0.00,,---,0.00,VWS V14.01,2013-06-20 14:15:00,
2013-06-20 10:17:00,76.1,48.7,30.18,NE,50,8.3,8.3,38,0.00,,---,0.00,VWS V14.01,2013-06-20 14:17:00,
2013-06-20 10:19:00,76.3,48.1,30.18,NNW,335,5.4,5.4,37,0.00,,---,0.00,VWS V14.01,2013-06-20 14:19:00,
2013-06-20 10:20:00,76.3,47.4,30.18,North,350,5.8,5.8,36,0.00,,---,0.00,VWS V14.01,2013-06-20 14:20:00,
2013-06-20 10:22:00,76.3,47.4,30.18,ESE,122,5.8,5.8,36,0.00,,---,0.00,VWS V14.01,2013-06-20 14:22:00,
2013-06-20 10:24:00,76.5,47.5,30.18,NNW,334,8.1,8.1,36,0.00,,---,0.00,VWS V14.01,2013-06-20 14:24:00,
2013-06-20 10:25:00,76.5,47.5,30.18,North,1,10.1,10.1,36,0.00,,---,0.00,VWS V14.01,2013-06-20 14:25:00,
2013-06-20 10:27:00,76.5,47.5,30.18,North,1,10.1,10.1,36,0.00,,---,0.00,VWS V14.01,2013-06-20 14:27:00,
2013-06-20 10:28:00,76.5,47.5,30.18,East,93,5.4,10.1,36,0.00,,---,0.00,VWS V14.01,2013-06-20 14:28:00,
2013-06-20 10:29:00,76.3,47.4,30.18,NE,41,10.5,10.5,36,0.00,,---,0.00,VWS V14.01,2013-06-20 14:29:00,
2013-06-20 10:30:00,76.3,47.4,30.18,NE,41,10.5,10.5,36,0.00,,---,0.00,VWS V14.01,2013-06-20 14:30:00,
2013-06-20 10:32:00,76.3,47.4,30.18,ENE,66,2.7,6.3,36,0.00,,---,0.00,VWS V14.01,2013-06-20 14:32:00,
2013-06-20 10:33:00,76.3,47.4,30.18,North,1,4.0,6.3,36,0.00,,---,0.00,VWS V14.01,2013-06-20 14:33:00,
2013-06-20 10:34:00,76.3,47.4,30.18,NNE,18,8.3,8.3,36,0.00,,---,0.00,VWS V14.01,2013-06-20 14:34:00,
2013-06-20 10:35:00,76.3,47.4,30.18,NNE,18,8.3,8.3,36,0.00,,---,0.00,VWS V14.01,2013-06-20 14:35:00,
2013-06-20 10:37:00,76.3,48.1,30.18,NE,45,7.2,7.2,37,0.00,,---,0.00,VWS V14.01,2013-06-20 14:37:00,
2013-06-20 10:38:00,76.3,48.1,30.18,NE,45,7.2,7.2,37,0.00,,---,0.00,VWS V14.01,2013-06-20 14:38:00,
2013-06-20 10:40:00,76.3,48.1,30.18,NNW,329,10.5,10.5,37,0.00,,---,0.00,VWS V14.01,2013-06-20 14:40:00,
2013-06-20 10:43:00,76.3,48.1,30.18,NNE,23,5.4,10.5,37,0.00,,---,0.00,VWS V14.01,2013-06-20 14:43:00,
2013-06-20 10:45:00,76.5,47.5,30.18,NNE,23,5.4,5.4,36,0.00,,---,0.00,VWS V14.01,2013-06-20 14:45:00,
2013-06-20 10:48:00,76.5,47.5,30.18,NNE,31,0.0,0.0,36,0.00,,---,0.00,VWS V14.01,2013-06-20 14:48:00,
2013-06-20 10:50:00,76.5,47.5,30.18,East,90,8.3,8.3,36,0.00,,---,0.00,VWS V14.01,2013-06-20 14:50:00,
2013-06-20 10:53:00,76.5,47.5,30.18,North,349,4.0,6.3,36,0.00,,---,0.00,VWS V14.01,2013-06-20 14:53:00,
2013-06-20 10:55:00,76.6,47.7,30.18,North,350,7.6,7.6,36,0.00,,---,0.00,VWS V14.01,2013-06-20 14:55:00,
2013-06-20 10:58:00,76.6,47.7,30.18,ENE,62,7.6,8.1,36,0.00,,---,0.00,VWS V14.01,2013-06-20 14:58:00,
2013-06-20 11:00:00,76.6,47.7,30.18,NW,307,3.6,3.6,36,0.00,,---,0.00,VWS V14.01,2013-06-20 15:00:00,
2013-06-20 11:03:00,76.6,47.7,30.18,ENE,61,8.1,8.1,36,0.00,,---,0.00,VWS V14.01,2013-06-20 15:03:00,
2013-06-20 11:05:00,76.8,47.1,30.18,NNE,13,6.3,6.3,35,0.00,,---,0.00,VWS V14.01,2013-06-20 15:05:00,
2013-06-20 11:08:00,76.8,47.1,30.18,North,357,5.4,5.4,35,0.00,,---,0.00,VWS V14.01,2013-06-20 15:08:00,
2013-06-20 11:10:00,76.8,47.1,30.18,NNW,327,5.4,5.4,35,0.00,,---,0.00,VWS V14.01,2013-06-20 15:10:00,
2013-06-20 11:13:00,77.2,48.2,30.18,NNW,348,8.7,8.7,36,0.00,,---,0.00,VWS V14.01,2013-06-20 15:13:00,
2013-06-20 11:15:00,77.2,48.2,30.18,NNE,20,5.4,5.4,36,0.00,,---,0.00,VWS V14.01,2013-06-20 15:15:00,
2013-06-20 11:16:00,77.2,48.2,30.18,NNE,20,5.4,5.4,36,0.00,,---,0.00,VWS V14.01,2013-06-20 15:16:00,
2013-06-20 11:18:00,77.7,47.9,30.18,NNE,16,8.7,8.7,35,0.00,,---,0.00,VWS V14.01,2013-06-20 15:18:00,
2013-06-20 11:20:00,77.7,47.9,30.18,NNE,16,8.7,8.7,35,0.00,,---,0.00,VWS V14.01,2013-06-20 15:20:00,
2013-06-20 11:21:00,77.7,47.9,30.18,WSW,241,0.0,8.7,35,0.00,,---,0.00,VWS V14.01,2013-06-20 15:21:00,
2013-06-20 11:23:00,78.1,48.2,30.18,ENE,62,3.6,6.3,35,0.00,,---,0.00,VWS V14.01,2013-06-20 15:23:00,
2013-06-20 11:25:00,78.1,48.2,30.18,NE,38,8.3,8.3,35,0.00,,---,0.00,VWS V14.01,2013-06-20 15:25:00,
2013-06-20 11:26:00,78.1,48.2,30.18,NE,38,8.3,8.3,35,0.00,,---,0.00,VWS V14.01,2013-06-20 15:26:00,
2013-06-20 11:28:00,78.1,46.7,30.18,North,1,8.7,8.7,33,0.00,,---,0.00,VWS V14.01,2013-06-20 15:28:00,
2013-06-20 11:30:00,78.1,47.5,30.18,North,1,8.7,8.7,34,0.00,,---,0.00,VWS V14.01,2013-06-20 15:30:00,
2013-06-20 11:31:00,78.3,47.6,30.18,North,1,8.7,8.7,34,0.00,,---,0.00,VWS V14.01,2013-06-20 15:31:00,
2013-06-20 11:33:00,78.3,47.6,30.18,NNW,335,4.9,4.9,34,0.00,,---,0.00,VWS V14.01,2013-06-20 15:33:00,
2013-06-20 11:35:00,78.3,47.6,30.18,ESE,108,5.4,5.4,34,0.00,,---,0.00,VWS V14.01,2013-06-20 15:35:00,
2013-06-20 11:36:00,78.4,47.8,30.18,ESE,108,5.4,5.4,34,0.00,,---,0.00,VWS V14.01,2013-06-20 15:36:00,
2013-06-20 11:38:00,78.6,47.9,30.18,NNE,33,5.4,5.4,34,0.00,,---,0.00,VWS V14.01,2013-06-20 15:38:00,
2013-06-20 11:40:00,78.8,47.3,30.18,NNW,345,3.6,3.6,33,0.00,,---,0.00,VWS V14.01,2013-06-20 15:40:00,
2013-06-20 11:41:00,78.8,47.3,30.18,NNW,345,3.6,3.6,33,0.00,,---,0.00,VWS V14.01,2013-06-20 15:41:00,
2013-06-20 11:43:00,79.2,48.4,30.18,NW,314,5.4,5.4,34,0.00,,---,0.00,VWS V14.01,2013-06-20 15:43:00,
2013-06-20 11:45:00,79.2,48.4,30.18,NE,50,10.5,10.5,34,0.00,,---,0.00,VWS V14.01,2013-06-20 15:45:00,
2013-06-20 11:46:00,79.2,48.4,30.18,NE,50,10.5,10.5,34,0.00,,---,0.00,VWS V14.01,2013-06-20 15:46:00,
2013-06-20 11:48:00,79.2,48.4,30.18,NNW,330,3.1,3.1,34,0.00,,---,0.00,VWS V14.01,2013-06-20 15:48:00,
2013-06-20 11:50:00,79.2,46.0,30.18,NNE,12,6.3,6.3,31,0.00,,---,0.00,VWS V14.01,2013-06-20 15:50:00,
2013-06-20 11:51:00,79.2,46.0,30.18,NNE,12,6.3,6.3,31,0.00,,---,0.00,VWS V14.01,2013-06-20 15:51:00,
2013-06-20 11:53:00,79.0,45.8,30.18,ESE,103,3.1,3.1,31,0.00,,---,0.00,VWS V14.01,2013-06-20 15:53:00,
2013-06-20 11:55:00,79.0,45.8,30.18,NE,51,8.1,8.1,31,0.00,,---,0.00,VWS V14.01,2013-06-20 15:55:00,
2013-06-20 11:56:00,79.0,45.8,30.18,NE,47,8.3,8.3,31,0.00,,---,0.00,VWS V14.01,2013-06-20 15:56:00,
2013-06-20 11:58:00,79.0,45.8,30.18,ESE,110,5.8,8.3,31,0.00,,---,0.00,VWS V14.01,2013-06-20 15:58:00,
2013-06-20 11:59:00,79.0,45.8,30.18,NE,56,3.6,8.3,31,0.00,,---,0.00,VWS V14.01,2013-06-20 15:59:00,
2013-06-20 12:01:00,79.3,47.0,30.18,NE,56,3.6,3.6,32,0.00,,---,0.00,VWS V14.01,2013-06-20 16:01:00,
2013-06-20 12:03:00,79.9,47.4,30.18,NE,40,3.6,3.6,32,0.00,,---,0.00,VWS V14.01,2013-06-20 16:03:00,
2013-06-20 12:04:00,79.9,47.4,30.18,NE,40,3.6,3.6,32,0.00,,---,0.00,VWS V14.01,2013-06-20 16:04:00,
2013-06-20 12:06:00,80.2,47.7,30.18,NNE,21,3.1,6.3,32,0.00,,---,0.00,VWS V14.01,2013-06-20 16:06:00,
2013-06-20 12:09:00,80.4,47.9,30.18,East,81,2.7,2.7,32,0.00,,---,0.00,VWS V14.01,2013-06-20 16:09:00,
2013-06-20 12:11:00,80.4,47.9,30.18,ESE,116,5.8,5.8,32,0.00,,---,0.00,VWS V14.01,2013-06-20 16:11:00,
2013-06-20 12:14:00,80.4,47.9,30.18,NE,46,5.4,8.1,32,0.00,,---,0.00,VWS V14.01,2013-06-20 16:14:00,
2013-06-20 12:16:00,80.4,47.0,30.18,East,87,3.6,5.4,31,0.00,,---,0.00,VWS V14.01,2013-06-20 16:16:00,
2013-06-20 12:19:00,80.6,47.2,30.18,NE,43,7.2,10.1,31,0.00,,---,0.00,VWS V14.01,2013-06-20 16:19:00,
2013-06-20 12:21:00,80.6,47.2,30.18,East,81,5.8,7.2,31,0.00,,---,0.00,VWS V14.01,2013-06-20 16:21:00,
2013-06-20 12:24:00,80.6,47.2,30.18,NE,51,7.6,11.0,31,0.00,,---,0.00,VWS V14.01,2013-06-20 16:24:00,
2013-06-20 12:26:00,80.6,47.2,30.18,NNW,348,6.7,7.6,31,0.00,,---,0.00,VWS V14.01,2013-06-20 16:26:00,
2013-06-20 12:27:00,80.1,46.7,30.18,NNW,348,6.7,6.7,31,0.00,,---,0.00,VWS V14.01,2013-06-20 16:27:00,
2013-06-20 12:29:00,80.1,46.7,30.18,NNW,335,11.0,12.3,31,0.00,,---,0.00,VWS V14.01,2013-06-20 16:29:00,
2013-06-20 12:31:00,79.9,46.6,30.18,ESE,113,7.6,7.6,31,0.00,,---,0.00,VWS V14.01,2013-06-20 16:31:00,
2013-06-20 12:32:00,79.9,46.6,30.18,NE,48,3.6,7.6,31,0.00,,---,0.00,VWS V14.01,2013-06-20 16:32:00,
2013-06-20 12:34:00,79.9,46.6,30.18,NE,38,3.1,3.1,31,0.00,,---,0.00,VWS V14.01,2013-06-20 16:34:00,
2013-06-20 12:36:00,79.9,46.6,30.18,East,94,8.1,8.1,31,0.00,,---,0.00,VWS V14.01,2013-06-20 16:36:00,
2013-06-20 12:37:00,79.7,46.4,30.18,East,94,8.1,8.1,31,0.00,,---,0.00,VWS V14.01,2013-06-20 16:37:00,
2013-06-20 12:39:00,79.7,46.4,30.18,ENE,74,7.6,7.6,31,0.00,,---,0.00,VWS V14.01,2013-06-20 16:39:00,
2013-06-20 12:41:00,79.9,46.6,30.18,East,87,8.3,8.3,31,0.00,,---,0.00,VWS V14.01,2013-06-20 16:41:00,
2013-06-20 12:42:00,79.9,46.6,30.18,South,173,6.3,6.3,31,0.00,,---,0.00,VWS V14.01,2013-06-20 16:42:00,
2013-06-20 12:44:00,79.9,46.6,30.18,South,173,6.3,6.3,31,0.00,,---,0.00,VWS V14.01,2013-06-20 16:44:00,
2013-06-20 12:46:00,80.1,46.7,30.18,NNW,342,10.1,10.1,31,0.00,,---,0.00,VWS V14.01,2013-06-20 16:46:00,
2013-06-20 12:47:00,80.1,46.7,30.18,NNW,342,10.1,10.1,31,0.00,,---,0.00,VWS V14.01,2013-06-20 16:47:00,
2013-06-20 12:49:00,80.1,46.7,30.18,NNE,27,5.8,5.8,31,0.00,,---,0.00,VWS V14.01,2013-06-20 16:49:00,
2013-06-20 12:51:00,80.4,47.0,30.18,NE,39,8.3,8.3,31,0.00,,---,0.00,VWS V14.01,2013-06-20 16:51:00,
2013-06-20 12:52:00,80.4,47.0,30.18,East,81,5.8,5.8,31,0.00,,---,0.00,VWS V14.01,2013-06-20 16:52:00,
2013-06-20 12:54:00,80.6,47.2,30.18,North,1,4.0,4.0,31,0.00,,---,0.00,VWS V14.01,2013-06-20 16:54:00,
2013-06-20 12:56:00,80.8,47.4,30.18,North,11,6.3,6.3,31,0.00,,---,0.00,VWS V14.01,2013-06-20 16:56:00,
2013-06-20 12:57:00,81.0,46.6,30.18,NE,46,8.1,8.1,30,0.00,,---,0.00,VWS V14.01,2013-06-20 16:57:00,
2013-06-20 12:59:00,81.0,46.6,30.18,NE,50,5.4,6.3,30,0.00,,---,0.00,VWS V14.01,2013-06-20 16:59:00,
2013-06-20 13:01:00,81.0,46.6,30.18,NE,50,5.4,5.4,30,0.00,,---,0.00,VWS V14.01,2013-06-20 17:01:00,
2013-06-20 13:02:00,81.0,46.6,30.18,East,82,5.8,5.8,30,0.00,,---,0.00,VWS V14.01,2013-06-20 17:02:00,
2013-06-20 13:04:00,81.0,46.6,30.18,SE,124,2.7,2.7,30,0.00,,---,0.00,VWS V14.01,2013-06-20 17:04:00,
2013-06-20 13:06:00,80.8,46.5,30.18,North,357,2.7,2.7,30,0.00,,---,0.00,VWS V14.01,2013-06-20 17:06:00,
2013-06-20 13:07:00,80.8,46.5,30.18,ENE,68,3.6,3.6,30,0.00,,---,0.00,VWS V14.01,2013-06-20 17:07:00,
2013-06-20 13:09:00,80.8,46.5,30.18,East,89,7.6,7.6,30,0.00,,---,0.00,VWS V14.01,2013-06-20 17:09:00,
2013-06-20 13:11:00,80.8,46.5,30.18,ENE,73,11.0,11.0,30,0.00,,---,0.00,VWS V14.01,2013-06-20 17:11:00,
2013-06-20 13:12:00,80.8,46.5,30.18,ENE,62,14.5,14.5,30,0.00,,---,0.00,VWS V14.01,2013-06-20 17:12:00,
2013-06-20 13:14:00,80.6,46.3,30.18,North,357,3.1,3.1,30,0.00,,---,0.00,VWS V14.01,2013-06-20 17:14:00,
2013-06-20 13:15:00,80.6,46.3,30.18,North,357,3.1,3.1,30,0.00,,---,0.00,VWS V14.01,2013-06-20 17:15:00,
2013-06-20 13:16:00,80.6,46.3,30.18,North,1,9.2,9.2,30,0.00,,---,0.00,VWS V14.01,2013-06-20 17:16:00,
2013-06-20 13:17:00,80.6,46.3,30.18,North,7,8.3,9.2,30,0.00,,---,0.00,VWS V14.01,2013-06-20 17:17:00,
2013-06-20 13:19:00,81.0,46.6,30.18,North,7,8.3,8.3,30,0.00,,---,0.00,VWS V14.01,2013-06-20 17:19:00,
2013-06-20 13:20:00,81.0,46.6,30.18,NE,56,2.7,8.3,30,0.00,,---,0.00,VWS V14.01,2013-06-20 17:20:00,
2013-06-20 13:21:00,81.3,47.0,30.18,North,353,3.6,3.6,30,0.00,,---,0.00,VWS V14.01,2013-06-20 17:21:00,
2013-06-20 13:22:00,81.3,47.0,30.18,North,353,3.6,3.6,30,0.00,,---,0.00,VWS V14.01,2013-06-20 17:22:00,
2013-06-20 13:24:00,81.3,47.0,30.18,NNE,32,8.7,8.7,30,0.00,,---,0.00,VWS V14.01,2013-06-20 17:24:00,
2013-06-20 13:25:00,81.3,47.0,30.18,NNE,32,8.7,8.7,30,0.00,,---,0.00,VWS V14.01,2013-06-20 17:25:00,
2013-06-20 13:26:00,81.3,47.0,30.18,NNE,23,4.0,4.0,30,0.00,,---,0.00,VWS V14.01,2013-06-20 17:26:00,
2013-06-20 13:27:00,81.3,47.0,30.18,NNE,23,4.0,4.0,30,0.00,,---,0.00,VWS V14.01,2013-06-20 17:27:00,
2013-06-20 13:29:00,81.1,46.8,30.18,NNE,23,4.0,4.0,30,0.00,,---,0.00,VWS V14.01,2013-06-20 17:29:00,
2013-06-20 13:30:00,81.1,46.8,30.18,ENE,67,8.3,8.3,30,0.00,,---,0.00,VWS V14.01,2013-06-20 17:30:00,
2013-06-20 13:32:00,81.1,46.8,30.18,NNE,20,4.0,4.0,30,0.00,,---,0.00,VWS V14.01,2013-06-20 17:32:00,
2013-06-20 13:33:00,81.1,46.8,30.18,NE,53,4.0,4.0,30,0.00,,---,0.00,VWS V14.01,2013-06-20 17:33:00,
2013-06-20 13:34:00,81.1,46.8,30.18,NE,48,0.0,0.0,30,0.00,,---,0.00,VWS V14.01,2013-06-20 17:34:00,
2013-06-20 13:35:00,81.1,46.8,30.18,NE,48,0.0,0.0,30,0.00,,---,0.00,VWS V14.01,2013-06-20 17:35:00,
2013-06-20 13:37:00,81.9,47.4,30.18,NNW,338,10.1,10.1,30,0.00,,---,0.00,VWS V14.01,2013-06-20 17:37:00,
2013-06-20 13:38:00,81.9,47.4,30.18,NE,44,3.1,10.1,30,0.00,,---,0.00,VWS V14.01,2013-06-20 17:38:00,
2013-06-20 13:39:00,81.9,47.4,30.18,NW,316,7.2,7.2,30,0.00,,---,0.00,VWS V14.01,2013-06-20 17:39:00,
2013-06-20 13:40:00,81.9,47.4,30.18,NW,316,7.2,7.2,30,0.00,,---,0.00,VWS V14.01,2013-06-20 17:40:00,
2013-06-20 13:42:00,81.5,47.1,30.18,NNW,336,8.7,8.7,30,0.00,,---,0.00,VWS V14.01,2013-06-20 17:42:00,
2013-06-20 13:43:00,81.5,47.1,30.18,NNW,336,8.7,8.7,30,0.00,,---,0.00,VWS V14.01,2013-06-20 17:43:00,
2013-06-20 13:44:00,81.5,47.1,30.18,NE,34,7.6,8.7,30,0.00,,---,0.00,VWS V14.01,2013-06-20 17:44:00,
2013-06-20 13:45:00,81.1,46.8,30.18,NE,34,7.6,8.7,30,0.00,,---,0.00,VWS V14.01,2013-06-20 17:45:00,
2013-06-20 13:47:00,81.0,46.6,30.18,North,350,11.0,11.0,30,0.00,,---,0.00,VWS V14.01,2013-06-20 17:47:00,
2013-06-20 13:48:00,81.0,46.6,30.18,NNW,328,10.5,10.5,30,0.00,,---,0.00,VWS V14.01,2013-06-20 17:48:00,
2013-06-20 13:50:00,81.0,46.6,30.18,NNW,328,10.5,10.5,30,0.00,,---,0.00,VWS V14.01,2013-06-20 17:50:00,
2013-06-20 13:52:00,80.8,46.5,30.18,NNW,340,10.5,10.5,30,0.00,,---,0.00,VWS V14.01,2013-06-20 17:52:00,
2013-06-20 13:53:00,80.8,46.5,30.18,NNW,340,10.5,10.5,30,0.00,,---,0.00,VWS V14.01,2013-06-20 17:53:00,
2013-06-20 13:55:00,80.8,46.5,30.18,NNE,25,8.1,8.1,30,0.00,,---,0.00,VWS V14.01,2013-06-20 17:55:00,
2013-06-20 13:57:00,80.8,46.5,30.18,North,7,6.3,8.1,30,0.00,,---,0.00,VWS V14.01,2013-06-20 17:57:00,
2013-06-20 13:58:00,80.8,46.5,30.18,North,9,7.2,7.2,30,0.00,,---,0.00,VWS V14.01,2013-06-20 17:58:00,
2013-06-20 14:00:00,81.1,46.8,30.18,North,9,7.2,7.2,30,0.00,,---,0.00,VWS V14.01,2013-06-20 18:00:00,
2013-06-20 14:02:00,81.3,47.0,30.18,NNW,340,8.1,8.1,30,0.00,,---,0.00,VWS V14.01,2013-06-20 18:02:00,
2013-06-20 14:03:00,81.3,47.0,30.18,NE,55,8.7,8.7,30,0.00,,---,0.00,VWS V14.01,2013-06-20 18:03:00,
2013-06-20 14:05:00,81.3,47.0,30.18,NNW,330,5.8,5.8,30,0.00,,---,0.00,VWS V14.01,2013-06-20 18:05:00,
2013-06-20 14:07:00,81.5,47.1,30.18,ENE,59,7.6,7.6,30,0.00,,---,0.00,VWS V14.01,2013-06-20 18:07:00,
2013-06-20 14:08:00,81.5,47.1,30.18,ENE,59,7.6,7.6,30,0.00,,---,0.00,VWS V14.01,2013-06-20 18:08:00,
2013-06-20 14:10:00,81.5,47.1,30.18,North,0,4.5,6.3,30,0.00,,---,0.00,VWS V14.01,2013-06-20 18:10:00,
2013-06-20 14:12:00,81.5,47.1,30.18,North,0,4.5,4.5,30,0.00,,---,0.00,VWS V14.01,2013-06-20 18:12:00,
2013-06-20 14:13:00,81.5,47.1,30.18,East,85,2.2,2.2,30,0.00,,---,0.00,VWS V14.01,2013-06-20 18:13:00,
2013-06-20 14:15:00,81.5,47.1,30.18,ENE,68,5.4,5.4,30,0.00,,---,0.00,VWS V14.01,2013-06-20 18:15:00,
2013-06-20 14:17:00,81.1,46.8,30.18,NE,52,5.8,5.8,30,0.00,,---,0.00,VWS V14.01,2013-06-20 18:17:00,
2013-06-20 14:18:00,81.1,46.8,30.18,NNE,21,2.7,5.8,30,0.00,,---,0.00,VWS V14.01,2013-06-20 18:18:00,
2013-06-20 14:20:00,81.1,46.8,30.18,NE,50,8.3,8.3,30,0.00,,---,0.00,VWS V14.01,2013-06-20 18:20:00,
2013-06-20 14:22:00,81.1,46.8,30.18,NW,313,5.8,5.8,30,0.00,,---,0.00,VWS V14.01,2013-06-20 18:22:00,
2013-06-20 14:23:00,81.3,47.0,30.18,SSW,193,3.1,3.1,30,0.00,,---,0.00,VWS V14.01,2013-06-20 18:23:00,
2013-06-20 14:25:00,81.3,47.0,30.18,ESE,113,5.4,5.4,30,0.00,,---,0.00,VWS V14.01,2013-06-20 18:25:00,
2013-06-20 14:27:00,81.3,47.0,30.18,NW,322,10.5,10.5,30,0.00,,---,0.00,VWS V14.01,2013-06-20 18:27:00,
2013-06-20 14:28:00,81.3,47.0,30.18,NW,322,10.5,10.5,30,0.00,,---,0.00,VWS V14.01,2013-06-20 18:28:00,
2013-06-20 14:30:00,81.3,47.0,30.18,NNW,346,7.6,7.6,30,0.00,,---,0.00,VWS V14.01,2013-06-20 18:30:00,
2013-06-20 14:32:00,81.3,47.0,30.18,NW,314,7.2,7.2,30,0.00,,---,0.00,VWS V14.01,2013-06-20 18:32:00,
2013-06-20 14:33:00,81.7,47.3,30.18,ESE,105,8.3,8.3,30,0.00,,---,0.00,VWS V14.01,2013-06-20 18:33:00,
2013-06-20 14:35:00,81.7,47.3,30.18,North,357,4.0,4.0,30,0.00,,---,0.00,VWS V14.01,2013-06-20 18:35:00,
2013-06-20 14:37:00,81.5,47.1,30.18,NW,313,5.4,5.4,30,0.00,,---,0.00,VWS V14.01,2013-06-20 18:37:00,
2013-06-20 14:38:00,81.5,47.1,30.18,NW,313,5.4,5.4,30,0.00,,---,0.00,VWS V14.01,2013-06-20 18:38:00,
2013-06-20 14:40:00,81.5,47.1,30.18,North,5,4.9,4.9,30,0.00,,---,0.00,VWS V14.01,2013-06-20 18:40:00,
2013-06-20 14:41:00,81.5,47.1,30.18,North,0,13.2,13.2,30,0.00,,---,0.00,VWS V14.01,2013-06-20 18:41:00,
2013-06-20 14:42:00,81.0,46.6,30.18,NW,323,12.3,12.3,30,0.00,,---,0.00,VWS V14.01,2013-06-20 18:42:00,
2013-06-20 14:43:00,81.0,46.6,30.18,NE,56,10.5,10.5,30,0.00,,---,0.00,VWS V14.01,2013-06-20 18:43:00,
2013-06-20 14:45:00,81.0,46.6,30.18,South,184,8.3,8.3,30,0.00,,---,0.00,VWS V14.01,2013-06-20 18:45:00,
2013-06-20 14:46:00,81.0,46.6,30.18,South,184,8.3,8.3,30,0.00,,---,0.00,VWS V14.01,2013-06-20 18:46:00,
2013-06-20 14:47:00,81.1,46.8,30.18,South,184,8.3,8.3,30,0.00,,---,0.00,VWS V14.01,2013-06-20 18:47:00,
2013-06-20 14:48:00,81.1,46.8,30.18,ENE,65,5.4,6.3,30,0.00,,---,0.00,VWS V14.01,2013-06-20 18:48:00,
2013-06-20 14:50:00,81.1,46.8,30.18,ENE,65,5.4,5.4,30,0.00,,---,0.00,VWS V14.01,2013-06-20 18:50:00,
2013-06-20 14:51:00,81.1,46.8,30.18,WNW,302,6.3,6.3,30,0.00,,---,0.00,VWS V14.01,2013-06-20 18:51:00,
2013-06-20 14:52:00,81.1,46.8,30.18,NE,44,6.3,6.3,30,0.00,,---,0.00,VWS V14.01,2013-06-20 18:52:00,
2013-06-20 14:53:00,81.1,46.8,30.18,NE,44,6.3,6.3,30,0.00,,---,0.00,VWS V14.01,2013-06-20 18:53:00,
2013-06-20 14:55:00,81.1,46.8,30.18,ENE,68,8.3,8.3,30,0.00,,---,0.00,VWS V14.01,2013-06-20 18:55:00,
2013-06-20 14:56:00,81.1,46.8,30.18,ENE,68,8.3,8.3,30,0.00,,---,0.00,VWS V14.01,2013-06-20 18:56:00,
2013-06-20 14:58:00,81.1,46.8,30.18,East,91,9.6,11.0,30,0.00,,---,0.00,VWS V14.01,2013-06-20 18:58:00,
2013-06-20 14:59:00,81.1,46.8,30.18,East,91,9.6,9.6,30,0.00,,---,0.00,VWS V14.01,2013-06-20 18:59:00,
2013-06-20 15:00:00,81.1,46.8,30.18,NE,38,5.8,5.8,30,0.00,,---,0.00,VWS V14.01,2013-06-20 19:00:00,
2013-06-20 15:01:00,81.1,46.8,30.18,NE,38,5.8,5.8,30,0.00,,---,0.00,VWS V14.01,2013-06-20 19:01:00,
2013-06-20 15:03:00,81.0,46.6,30.18,North,353,2.7,2.7,30,0.00,,---,0.00,VWS V14.01,2013-06-20 19:03:00,
2013-06-20 15:04:00,81.0,46.6,30.18,North,353,2.7,2.7,30,0.00,,---,0.00,VWS V14.01,2013-06-20 19:04:00,
2013-06-20 15:05:00,81.1,46.8,30.18,NNE,30,5.4,5.4,30,0.00,,---,0.00,VWS V14.01,2013-06-20 19:05:00,
2013-06-20 15:06:00,81.1,46.8,30.18,ESE,119,5.8,5.8,30,0.00,,---,0.00,VWS V14.01,2013-06-20 19:06:00,
2013-06-20 15:08:00,81.1,46.8,30.18,WNW,299,4.9,4.9,30,0.00,,---,0.00,VWS V14.01,2013-06-20 19:08:00,
2013-06-20 15:09:00,81.1,46.8,30.18,WNW,299,4.9,4.9,30,0.00,,---,0.00,VWS V14.01,2013-06-20 19:09:00,
2013-06-20 15:10:00,81.1,46.8,30.18,West,259,3.1,3.1,30,0.00,,---,0.00,VWS V14.01,2013-06-20 19:10:00,
2013-06-20 15:11:00,81.0,46.6,30.18,West,259,3.1,3.1,30,0.00,,---,0.00,VWS V14.01,2013-06-20 19:11:00,
2013-06-20 15:13:00,81.1,46.8,30.18,NE,37,3.1,3.1,30,0.00,,---,0.00,VWS V14.01,2013-06-20 19:13:00,
2013-06-20 15:14:00,81.1,46.8,30.18,East,93,6.7,6.7,30,0.00,,---,0.00,VWS V14.01,2013-06-20 19:14:00,
2013-06-20 15:15:00,81.1,46.8,30.18,East,93,6.7,6.7,30,0.00,,---,0.00,VWS V14.01,2013-06-20 19:15:00,
2013-06-20 15:16:00,81.1,46.8,30.18,East,93,6.7,6.7,30,0.00,,---,0.00,VWS V14.01,2013-06-20 19:16:00,
2013-06-20 15:18:00,81.1,46.8,30.18,East,93,6.7,6.7,30,0.00,,---,0.00,VWS V14.01,2013-06-20 19:18:00,
2013-06-20 15:19:00,81.1,46.8,30.18,NNE,22,2.7,6.7,30,0.00,,---,0.00,VWS V14.01,2013-06-20 19:19:00,
2013-06-20 15:20:00,81.3,47.0,30.18,NE,45,5.4,5.4,30,0.00,,---,0.00,VWS V14.01,2013-06-20 19:20:00,
2013-06-20 15:21:00,81.3,47.0,30.18,NE,45,5.4,5.4,30,0.00,,---,0.00,VWS V14.01,2013-06-20 19:21:00,
2013-06-20 15:23:00,81.3,47.0,30.18,NE,45,5.4,5.4,30,0.00,,---,0.00,VWS V14.01,2013-06-20 19:23:00,
2013-06-20 15:24:00,81.3,47.0,30.18,ENE,58,3.1,3.1,30,0.00,,---,0.00,VWS V14.01,2013-06-20 19:24:00,
2013-06-20 15:25:00,81.3,47.0,30.18,NE,35,5.4,5.4,30,0.00,,---,0.00,VWS V14.01,2013-06-20 19:25:00,
2013-06-20 15:27:00,81.3,47.0,30.18,WNW,294,8.1,8.1,30,0.00,,---,0.00,VWS V14.01,2013-06-20 19:27:00,
2013-06-20 15:28:00,81.3,47.0,30.18,NW,316,3.1,8.1,30,0.00,,---,0.00,VWS V14.01,2013-06-20 19:28:00,
2013-06-20 15:29:00,81.3,47.0,30.18,NNE,16,5.4,8.1,30,0.00,,---,0.00,VWS V14.01,2013-06-20 19:29:00,
2013-06-20 15:30:00,81.7,47.3,30.18,NNE,16,5.4,5.4,30,0.00,,---,0.00,VWS V14.01,2013-06-20 19:30:00,
2013-06-20 15:31:00,81.7,47.3,30.18,NNE,16,5.4,5.4,30,0.00,,---,0.00,VWS V14.01,2013-06-20 19:31:00,
2013-06-20 15:33:00,81.7,47.3,30.18,ENE,62,6.7,6.7,30,0.00,,---,0.00,VWS V14.01,2013-06-20 19:33:00,
2013-06-20 15:34:00,81.7,47.3,30.18,NE,53,6.3,6.7,30,0.00,,---,0.00,VWS V14.01,2013-06-20 19:34:00,
2013-06-20 15:35:00,81.7,47.3,30.18,NE,53,6.3,6.3,30,0.00,,---,0.00,VWS V14.01,2013-06-20 19:35:00,
2013-06-20 15:36:00,81.7,47.3,30.18,NE,53,6.3,6.3,30,0.00,,---,0.00,VWS V14.01,2013-06-20 19:36:00,
2013-06-20 15:38:00,81.5,47.1,30.18,North,353,3.1,3.1,30,0.00,,---,0.00,VWS V14.01,2013-06-20 19:38:00,
2013-06-20 15:39:00,81.5,47.1,30.18,North,353,3.1,3.1,30,0.00,,---,0.00,VWS V14.01,2013-06-20 19:39:00,
2013-06-20 15:41:00,81.5,47.1,30.18,NW,325,3.6,3.6,30,0.00,,---,0.00,VWS V14.01,2013-06-20 19:41:00,
2013-06-20 15:42:00,81.5,47.1,30.18,NW,325,3.6,3.6,30,0.00,,---,0.00,VWS V14.01,2013-06-20 19:42:00,
2013-06-20 15:43:00,81.5,47.1,30.18,NW,325,3.6,3.6,30,0.00,,---,0.00,VWS V14.01,2013-06-20 19:43:00,
2013-06-20 15:44:00,81.5,47.1,30.18,NW,325,3.6,3.6,30,0.00,,---,0.00,VWS V14.01,2013-06-20 19:44:00,
2013-06-20 15:46:00,81.5,47.1,30.18,NW,325,3.6,3.6,30,0.00,,---,0.00,VWS V14.01,2013-06-20 19:46:00,
2013-06-20 15:47:00,81.5,47.1,30.18,ENE,60,8.7,8.7,30,0.00,,---,0.00,VWS V14.01,2013-06-20 19:47:00,
2013-06-20 15:48:00,81.3,47.0,30.18,ESE,117,5.8,5.8,30,0.00,,---,0.00,VWS V14.01,2013-06-20 19:48:00,
2013-06-20 15:49:00,81.3,47.0,30.18,East,85,5.8,5.8,30,0.00,,---,0.00,VWS V14.01,2013-06-20 19:49:00,
2013-06-20 15:51:00,81.3,47.0,30.18,East,85,5.8,5.8,30,0.00,,---,0.00,VWS V14.01,2013-06-20 19:51:00,
2013-06-20 15:52:00,81.3,47.0,30.18,North,349,2.7,2.7,30,0.00,,---,0.00,VWS V14.01,2013-06-20 19:52:00,
2013-06-20 15:53:00,81.3,47.0,30.18,North,349,2.7,2.7,30,0.00,,---,0.00,VWS V14.01,2013-06-20 19:53:00,
2013-06-20 15:54:00,81.3,47.0,30.18,North,349,2.7,2.7,30,0.00,,---,0.00,VWS V14.01,2013-06-20 19:54:00,
2013-06-20 15:56:00,81.3,47.0,30.18,NNW,338,4.0,4.0,30,0.00,,---,0.00,VWS V14.01,2013-06-20 19:56:00,
2013-06-20 15:57:00,81.3,47.0,30.18,NNW,338,4.0,4.0,30,0.00,,---,0.00,VWS V14.01,2013-06-20 19:57:00,
2013-06-20 15:58:00,81.3,47.0,30.18,North,5,4.9,4.9,30,0.00,,---,0.00,VWS V14.01,2013-06-20 19:58:00,
2013-06-20 15:59:00,81.3,47.0,30.18,North,5,4.9,4.9,30,0.00,,---,0.00,VWS V14.01,2013-06-20 19:59:00,
2013-06-20 16:01:00,81.1,46.8,30.18,NNE,33,3.1,5.4,30,0.00,,---,0.00,VWS V14.01,2013-06-20 20:01:00,
2013-06-20 16:02:00,81.1,46.8,30.18,NNE,33,3.1,3.1,30,0.00,,---,0.00,VWS V14.01,2013-06-20 20:02:00,
2013-06-20 16:03:00,81.0,46.6,30.18,NNE,33,3.1,3.1,30,0.00,,---,0.00,VWS V14.01,2013-06-20 20:03:00,
2013-06-20 16:04:00,81.0,46.6,30.18,NNE,33,3.1,3.1,30,0.00,,---,0.00,VWS V14.01,2013-06-20 20:04:00,
2013-06-20 16:06:00,81.0,46.6,30.18,WNW,298,5.4,5.4,30,0.00,,---,0.00,VWS V14.01,2013-06-20 20:06:00,
2013-06-20 16:07:00,81.0,46.6,30.18,WNW,298,5.4,5.4,30,0.00,,---,0.00,VWS V14.01,2013-06-20 20:07:00,
2013-06-20 16:08:00,81.0,46.6,30.18,East,86,4.9,4.9,30,0.00,,---,0.00,VWS V14.01,2013-06-20 20:08:00,
2013-06-20 16:09:00,81.0,46.6,30.18,East,86,4.9,4.9,30,0.00,,---,0.00,VWS V14.01,2013-06-20 20:09:00,
2013-06-20 16:11:00,81.9,47.4,30.18,East,86,4.9,4.9,30,0.00,,---,0.00,VWS V14.01,2013-06-20 20:11:00,
2013-06-20 16:12:00,82.0,47.6,30.18,East,86,4.9,4.9,30,0.00,,---,0.00,VWS V14.01,2013-06-20 20:12:00,
2013-06-20 16:13:00,82.0,47.6,30.18,SE,127,3.1,4.9,30,0.00,,---,0.00,VWS V14.01,2013-06-20 20:13:00,
2013-06-20 16:14:00,82.0,47.6,30.18,SE,127,3.1,4.9,30,0.00,,---,0.00,VWS V14.01,2013-06-20 20:14:00,
2013-06-20 16:16:00,82.0,47.6,30.18,ENE,78,11.0,11.0,30,0.00,,---,0.00,VWS V14.01,2013-06-20 20:16:00,
2013-06-20 16:17:00,82.0,47.6,30.18,NNE,14,6.3,11.0,30,0.00,,---,0.00,VWS V14.01,2013-06-20 20:17:00,
2013-06-20 16:18:00,81.9,47.4,30.18,NNW,342,4.9,6.3,30,0.00,,---,0.00,VWS V14.01,2013-06-20 20:18:00,
2013-06-20 16:19:00,81.9,47.4,30.18,NNW,342,4.9,6.3,30,0.00,,---,0.00,VWS V14.01,2013-06-20 20:19:00,
2013-06-20 16:21:00,81.9,47.4,30.18,NNW,342,4.9,4.9,30,0.00,,---,0.00,VWS V14.01,2013-06-20 20:21:00,
2013-06-20 16:22:00,81.9,47.4,30.18,NNW,348,12.3,12.3,30,0.00,,---,0.00,VWS V14.01,2013-06-20 20:22:00,
2013-06-20 16:24:00,81.9,47.4,30.18,NNE,20,5.8,5.8,30,0.00,,---,0.00,VWS V14.01,2013-06-20 20:24:00,
2013-06-20 16:26:00,81.9,47.4,30.18,West,276,3.1,5.8,30,0.00,,---,0.00,VWS V14.01,2013-06-20 20:26:00,
2013-06-20 16:27:00,81.5,47.1,30.18,East,98,2.7,2.7,30,0.00,,---,0.00,VWS V14.01,2013-06-20 20:27:00,
2013-06-20 16:29:00,81.7,47.3,30.18,East,98,2.7,2.7,30,0.00,,---,0.00,VWS V14.01,2013-06-20 20:29:00,
2013-06-20 16:31:00,81.7,47.3,30.18,NE,47,4.0,4.0,30,0.00,,---,0.00,VWS V14.01,2013-06-20 20:31:00,
2013-06-20 16:32:00,81.7,47.3,30.18,WSW,258,3.1,4.0,30,0.00,,---,0.00,VWS V14.01,2013-06-20 20:32:00,
2013-06-20 16:34:00,81.7,47.3,30.18,WSW,258,3.1,3.1,30,0.00,,---,0.00,VWS V14.01,2013-06-20 20:34:00,
2013-06-20 16:36:00,81.7,47.3,30.18,ENE,77,7.6,7.6,30,0.00,,---,0.00,VWS V14.01,2013-06-20 20:36:00,
2013-06-20 16:37:00,81.7,47.3,30.18,ENE,77,7.6,7.6,30,0.00,,---,0.00,VWS V14.01,2013-06-20 20:37:00,
2013-06-20 16:39:00,81.7,47.3,30.18,ENE,77,7.6,7.6,30,0.00,,---,0.00,VWS V14.01,2013-06-20 20:39:00,
2013-06-20 16:41:00,81.7,47.3,30.18,WNW,282,6.3,6.3,30,0.00,,---,0.00,VWS V14.01,2013-06-20 20:41:00,
2013-06-20 16:42:00,81.9,47.4,30.18,WNW,282,6.3,6.3,30,0.00,,---,0.00,VWS V14.01,2013-06-20 20:42:00,
2013-06-20 16:44:00,81.9,47.4,30.18,WNW,282,6.3,6.3,30,0.00,,---,0.00,VWS V14.01,2013-06-20 20:44:00,
2013-06-20 16:46:00,81.9,47.4,30.18,NE,52,6.3,6.3,30,0.00,,---,0.00,VWS V14.01,2013-06-20 20:46:00,
2013-06-20 16:47:00,81.9,47.4,30.18,NE,52,6.3,6.3,30,0.00,,---,0.00,VWS V14.01,2013-06-20 20:47:00,
2013-06-20 16:49:00,81.9,47.4,30.18,NE,52,6.3,6.3,30,0.00,,---,0.00,VWS V14.01,2013-06-20 20:49:00,
2013-06-20 16:51:00,81.9,47.4,30.18,ENE,78,8.3,8.3,30,0.00,,---,0.00,VWS V14.01,2013-06-20 20:51:00,
2013-06-20 16:52:00,81.9,47.4,30.18,SSE,147,3.1,8.3,30,0.00,,---,0.00,VWS V14.01,2013-06-20 20:52:00,
2013-06-20 16:54:00,81.9,47.4,30.18,ENE,63,3.6,3.6,30,0.00,,---,0.00,VWS V14.01,2013-06-20 20:54:00,
2013-06-20 16:56:00,81.0,46.6,30.18,ENE,63,3.6,3.6,30,0.00,,---,0.00,VWS V14.01,2013-06-20 20:56:00,
2013-06-20 16:58:00,81.0,46.6,30.18,NE,55,3.1,3.1,30,0.00,,---,0.00,VWS V14.01,2013-06-20 20:58:00,
2013-06-20 16:59:00,81.0,46.6,30.18,NE,55,3.1,3.1,30,0.00,,---,0.00,VWS V14.01,2013-06-20 20:59:00,
2013-06-20 17:01:00,81.0,46.6,30.18,NE,55,3.1,3.1,30,0.00,,---,0.00,VWS V14.01,2013-06-20 21:01:00,
2013-06-20 17:03:00,81.0,46.6,30.18,NE,55,3.1,3.1,30,0.00,,---,0.00,VWS V14.01,2013-06-20 21:03:00,
2013-06-20 17:04:00,80.8,46.5,30.18,NNW,341,4.0,4.0,30,0.00,,---,0.00,VWS V14.01,2013-06-20 21:04:00,
2013-06-20 17:06:00,80.8,46.5,30.18,NE,50,6.3,6.3,30,0.00,,---,0.00,VWS V14.01,2013-06-20 21:06:00,
2013-06-20 17:08:00,80.6,46.3,30.18,NE,39,8.1,8.1,30,0.00,,---,0.00,VWS V14.01,2013-06-20 21:08:00,
2013-06-20 17:09:00,80.6,46.3,30.18,NNE,19,8.3,8.3,30,0.00,,---,0.00,VWS V14.01,2013-06-20 21:09:00,
2013-06-20 17:10:00,80.6,46.3,30.18,NNE,19,8.3,8.3,30,0.00,,---,0.00,VWS V14.01,2013-06-20 21:10:00,
2013-06-20 17:11:00,80.6,46.3,30.18,East,97,4.9,8.3,30,0.00,,---,0.00,VWS V14.01,2013-06-20 21:11:00,
2013-06-20 17:13:00,80.6,46.3,30.18,East,97,4.9,4.9,30,0.00,,---,0.00,VWS V14.01,2013-06-20 21:13:00,
2013-06-20 17:14:00,80.6,46.3,30.18,East,97,4.9,4.9,30,0.00,,---,0.00,VWS V14.01,2013-06-20 21:14:00,
2013-06-20 17:15:00,80.6,46.3,30.18,East,97,4.9,4.9,30,0.00,,---,0.00,VWS V14.01,2013-06-20 21:15:00,
2013-06-20 17:16:00,80.6,46.3,30.18,East,97,4.9,4.9,30,0.00,,---,0.00,VWS V14.01,2013-06-20 21:16:00,
2013-06-20 17:18:00,80.6,46.3,30.18,East,97,4.9,4.9,30,0.00,,---,0.00,VWS V14.01,2013-06-20 21:18:00,
2013-06-20 17:19:00,80.6,46.3,30.18,East,97,4.9,4.9,30,0.00,,---,0.00,VWS V14.01,2013-06-20 21:19:00,
2013-06-20 17:20:00,80.6,46.3,30.15,NNE,31,4.0,4.9,30,0.00,,---,0.00,VWS V14.01,2013-06-20 21:20:00,
2013-06-20 17:22:00,80.8,46.5,30.15,NNE,31,4.0,4.0,30,0.00,,---,0.00,VWS V14.01,2013-06-20 21:22:00,
2013-06-20 17:23:00,80.8,46.5,30.15,NNE,31,4.0,4.0,30,0.00,,---,0.00,VWS V14.01,2013-06-20 21:23:00,
2013-06-20 17:24:00,80.8,46.5,30.15,NNE,31,4.0,4.0,30,0.00,,---,0.00,VWS V14.01,2013-06-20 21:24:00,
2013-06-20 17:25:00,80.8,46.5,30.15,NE,37,7.6,7.6,30,0.00,,---,0.00,VWS V14.01,2013-06-20 21:25:00,
2013-06-20 17:27:00,80.6,46.3,30.15,NE,37,7.6,7.6,30,0.00,,---,0.00,VWS V14.01,2013-06-20 21:27:00,
2013-06-20 17:28:00,80.6,46.3,30.15,NE,37,7.6,7.6,30,0.00,,---,0.00,VWS V14.01,2013-06-20 21:28:00,
2013-06-20 17:29:00,80.6,46.3,30.15,NE,37,7.6,7.6,30,0.00,,---,0.00,VWS V14.01,2013-06-20 21:29:00,
2013-06-20 17:30:00,80.6,46.3,30.15,NE,37,7.6,7.6,30,0.00,,---,0.00,VWS V14.01,2013-06-20 21:30:00,
2013-06-20 17:32:00,80.6,46.3,30.15,NE,37,7.6,7.6,30,0.00,,---,0.00,VWS V14.01,2013-06-20 21:32:00,
2013-06-20 17:33:00,80.6,46.3,30.15,NNW,336,3.6,7.6,30,0.00,,---,0.00,VWS V14.01,2013-06-20 21:33:00,
2013-06-20 17:34:00,80.6,46.3,30.15,NNE,14,3.1,8.3,30,0.00,,---,0.00,VWS V14.01,2013-06-20 21:34:00,
2013-06-20 17:35:00,80.6,46.3,30.15,NNE,14,3.1,8.3,30,0.00,,---,0.00,VWS V14.01,2013-06-20 21:35:00,
2013-06-20 17:37:00,80.6,46.3,30.15,NNE,14,3.1,3.1,30,0.00,,---,0.00,VWS V14.01,2013-06-20 21:37:00,
2013-06-20 17:38:00,80.6,46.3,30.15,NNE,14,3.1,3.1,30,0.00,,---,0.00,VWS V14.01,2013-06-20 21:38:00,
2013-06-20 17:39:00,80.6,46.3,30.15,NNE,14,3.1,3.1,30,0.00,,---,0.00,VWS V14.01,2013-06-20 21:39:00,
2013-06-20 17:40:00,80.6,46.3,30.15,NNE,14,3.1,3.1,30,0.00,,---,0.00,VWS V14.01,2013-06-20 21:40:00,
2013-06-20 17:42:00,80.2,46.0,30.15,NNE,14,3.1,3.1,30,0.00,,---,0.00,VWS V14.01,2013-06-20 21:42:00,
2013-06-20 17:43:00,80.2,46.0,30.15,ENE,57,4.9,4.9,30,0.00,,---,0.00,VWS V14.01,2013-06-20 21:43:00,
2013-06-20 17:44:00,80.2,46.0,30.15,ENE,57,4.9,4.9,30,0.00,,---,0.00,VWS V14.01,2013-06-20 21:44:00,
2013-06-20 17:45:00,80.2,46.0,30.15,ENE,57,4.9,4.9,30,0.00,,---,0.00,VWS V14.01,2013-06-20 21:45:00,
2013-06-20 17:47:00,80.4,46.2,30.15,NNE,27,3.6,3.6,30,0.00,,---,0.00,VWS V14.01,2013-06-20 21:47:00,
2013-06-20 17:48:00,80.4,46.2,30.15,NNE,27,3.6,3.6,30,0.00,,---,0.00,VWS V14.01,2013-06-20 21:48:00,
2013-06-20 17:50:00,80.2,46.0,30.18,NNE,27,3.6,3.6,30,0.00,,---,0.00,VWS V14.01,2013-06-20 21:50:00,
2013-06-20 17:52:00,80.2,46.0,30.18,NW,311,4.0,4.0,30,0.00,,---,0.00,VWS V14.01,2013-06-20 21:52:00,
2013-06-20 17:53:00,80.2,46.0,30.18,NE,42,5.8,5.8,30,0.00,,---,0.00,VWS V14.01,2013-06-20 21:53:00,
2013-06-20 17:55:00,80.1,45.9,30.18,NE,42,5.8,5.8,30,0.00,,---,0.00,VWS V14.01,2013-06-20 21:55:00,
2013-06-20 17:57:00,79.9,45.7,30.18,NE,42,5.8,5.8,30,0.00,,---,0.00,VWS V14.01,2013-06-20 21:57:00,
2013-06-20 17:58:00,79.7,45.6,30.18,NE,42,5.8,5.8,30,0.00,,---,0.00,VWS V14.01,2013-06-20 21:58:00,
2013-06-20 18:00:00,79.7,45.6,30.18,East,95,6.7,8.7,30,0.00,,---,0.00,VWS V14.01,2013-06-20 22:00:00,
2013-06-20 18:02:00,79.7,45.6,30.18,NE,51,5.8,5.8,30,0.00,,---,0.00,VWS V14.01,2013-06-20 22:02:00,
2013-06-20 18:03:00,79.5,45.4,30.18,NE,51,5.8,5.8,30,0.00,,---,0.00,VWS V14.01,2013-06-20 22:03:00,
2013-06-20 18:05:00,79.5,45.4,30.15,NE,51,5.8,5.8,30,0.00,,---,0.00,VWS V14.01,2013-06-20 22:05:00,
2013-06-20 18:07:00,79.5,45.4,30.15,North,1,5.4,5.8,30,0.00,,---,0.00,VWS V14.01,2013-06-20 22:07:00,
2013-06-20 18:08:00,79.5,45.4,30.15,North,1,5.4,5.4,30,0.00,,---,0.00,VWS V14.01,2013-06-20 22:08:00,
2013-06-20 18:10:00,79.5,45.4,30.15,ESE,117,3.6,3.6,30,0.00,,---,0.00,VWS V14.01,2013-06-20 22:10:00,
2013-06-20 18:12:00,79.2,45.1,30.15,SE,131,2.2,2.2,30,0.00,,---,0.00,VWS V14.01,2013-06-20 22:12:00,
2013-06-20 18:13:00,79.2,45.1,30.15,East,82,3.1,3.1,30,0.00,,---,0.00,VWS V14.01,2013-06-20 22:13:00,
2013-06-20 18:15:00,79.2,45.1,30.15,NE,45,3.6,3.6,30,0.00,,---,0.00,VWS V14.01,2013-06-20 22:15:00,
2013-06-20 18:17:00,79.2,45.1,30.15,NE,45,3.6,3.6,30,0.00,,---,0.00,VWS V14.01,2013-06-20 22:17:00,
2013-06-20 18:18:00,79.2,45.1,30.15,NE,45,3.6,3.6,30,0.00,,---,0.00,VWS V14.01,2013-06-20 22:18:00,
2013-06-20 18:20:00,79.2,45.1,30.15,ESE,122,0.0,0.0,30,0.00,,---,0.00,VWS V14.01,2013-06-20 22:20:00,
2013-06-20 18:21:00,79.2,45.1,30.15,ESE,111,3.1,3.1,30,0.00,,---,0.00,VWS V14.01,2013-06-20 22:21:00,
2013-06-20 18:22:00,79.2,45.1,30.15,North,353,3.6,3.6,30,0.00,,---,0.00,VWS V14.01,2013-06-20 22:22:00,
2013-06-20 18:23:00,79.2,45.1,30.15,North,353,3.6,3.6,30,0.00,,---,0.00,VWS V14.01,2013-06-20 22:23:00,
2013-06-20 18:25:00,79.2,45.1,30.15,ENE,75,4.0,4.0,30,0.00,,---,0.00,VWS V14.01,2013-06-20 22:25:00,
2013-06-20 18:26:00,79.0,44.9,30.15,ENE,75,4.0,4.0,30,0.00,,---,0.00,VWS V14.01,2013-06-20 22:26:00,
2013-06-20 18:27:00,79.0,44.9,30.15,North,9,4.0,4.0,30,0.00,,---,0.00,VWS V14.01,2013-06-20 22:27:00,
2013-06-20 18:29:00,79.0,44.9,30.15,ESE,109,2.7,2.7,30,0.00,,---,0.00,VWS V14.01,2013-06-20 22:29:00,
2013-06-20 18:30:00,79.0,44.9,30.15,ESE,109,2.7,2.7,30,0.00,,---,0.00,VWS V14.01,2013-06-20 22:30:00,
2013-06-20 18:31:00,79.0,44.9,30.15,ESE,109,2.7,2.7,30,0.00,,---,0.00,VWS V14.01,2013-06-20 22:31:00,
2013-06-20 18:32:00,79.0,44.9,30.18,ESE,109,2.7,2.7,30,0.00,,---,0.00,VWS V14.01,2013-06-20 22:32:00,
2013-06-20 18:34:00,79.0,44.9,30.18,ESE,109,2.7,2.7,30,0.00,,---,0.00,VWS V14.01,2013-06-20 22:34:00,
2013-06-20 18:35:00,79.0,44.9,30.18,ENE,58,2.7,2.7,30,0.00,,---,0.00,VWS V14.01,2013-06-20 22:35:00,
2013-06-20 18:36:00,79.0,44.9,30.18,ENE,58,2.7,2.7,30,0.00,,---,0.00,VWS V14.01,2013-06-20 22:36:00,
2013-06-20 18:37:00,78.3,45.2,30.18,ENE,58,2.7,2.7,31,0.00,,---,0.00,VWS V14.01,2013-06-20 22:37:00,
2013-06-20 18:39:00,78.3,45.2,30.18,ENE,58,2.7,2.7,31,0.00,,---,0.00,VWS V14.01,2013-06-20 22:39:00,
2013-06-20 18:40:00,78.3,45.2,30.18,NE,39,5.4,5.4,31,0.00,,---,0.00,VWS V14.01,2013-06-20 22:40:00,
2013-06-20 18:41:00,78.3,45.2,30.18,NE,39,5.4,5.4,31,0.00,,---,0.00,VWS V14.01,2013-06-20 22:41:00,
2013-06-20 18:42:00,78.1,45.0,30.18,NE,39,5.4,5.4,31,0.00,,---,0.00,VWS V14.01,2013-06-20 22:42:00,
2013-06-20 18:44:00,78.1,45.0,30.18,NNW,334,3.1,5.4,31,0.00,,---,0.00,VWS V14.01,2013-06-20 22:44:00,
2013-06-20 18:45:00,78.1,45.0,30.18,NNW,334,3.1,3.1,31,0.00,,---,0.00,VWS V14.01,2013-06-20 22:45:00,
2013-06-20 18:46:00,77.9,44.9,30.18,NNW,334,3.1,3.1,31,0.00,,---,0.00,VWS V14.01,2013-06-20 22:46:00,
2013-06-20 18:48:00,77.9,44.9,30.18,NNW,334,3.1,3.1,31,0.00,,---,0.00,VWS V14.01,2013-06-20 22:48:00,
2013-06-20 18:49:00,77.9,44.9,30.18,NE,51,3.6,3.6,31,0.00,,---,0.00,VWS V14.01,2013-06-20 22:49:00,
2013-06-20 18:50:00,77.7,44.7,30.18,NNE,14,5.8,5.8,31,0.00,,---,0.00,VWS V14.01,2013-06-20 22:50:00,
2013-06-20 18:51:00,77.7,44.7,30.18,NNE,14,5.8,5.8,31,0.00,,---,0.00,VWS V14.01,2013-06-20 22:51:00,
2013-06-20 18:53:00,77.7,44.7,30.18,NE,41,7.2,7.2,31,0.00,,---,0.00,VWS V14.01,2013-06-20 22:53:00,
2013-06-20 18:54:00,77.5,44.5,30.18,NE,35,2.7,2.7,31,0.00,,---,0.00,VWS V14.01,2013-06-20 22:54:00,
2013-06-20 18:55:00,77.4,44.4,30.18,NE,47,5.8,5.8,31,0.00,,---,0.00,VWS V14.01,2013-06-20 22:55:00,
2013-06-20 18:56:00,77.4,44.4,30.18,NE,47,5.8,5.8,31,0.00,,---,0.00,VWS V14.01,2013-06-20 22:56:00,
2013-06-20 18:58:00,77.4,44.4,30.18,East,88,4.9,5.8,31,0.00,,---,0.00,VWS V14.01,2013-06-20 22:58:00,
2013-06-20 18:59:00,77.4,44.4,30.18,East,88,4.9,4.9,31,0.00,,---,0.00,VWS V14.01,2013-06-20 22:59:00,
2013-06-20 19:00:00,77.4,44.4,30.18,East,88,4.9,4.9,31,0.00,,---,0.00,VWS V14.01,2013-06-20 23:00:00,
2013-06-20 19:01:00,77.4,44.4,30.18,NE,47,5.8,5.8,31,0.00,,---,0.00,VWS V14.01,2013-06-20 23:01:00,
2013-06-20 19:03:00,77.0,44.1,30.18,NNE,32,0.0,5.8,31,0.00,,---,0.00,VWS V14.01,2013-06-20 23:03:00,
2013-06-20 19:04:00,77.0,44.1,30.18,NNE,32,0.0,0.0,31,0.00,,---,0.00,VWS V14.01,2013-06-20 23:04:00,
2013-06-20 19:05:00,76.8,43.9,30.18,NNE,32,0.0,0.0,31,0.00,,---,0.00,VWS V14.01,2013-06-20 23:05:00,
2013-06-20 19:06:00,76.8,43.9,30.18,NNE,32,0.0,0.0,31,0.00,,---,0.00,VWS V14.01,2013-06-20 23:06:00,
2013-06-20 19:08:00,76.8,43.9,30.18,NNE,32,0.0,0.0,31,0.00,,---,0.00,VWS V14.01,2013-06-20 23:08:00,
2013-06-20 19:09:00,76.8,43.9,30.18,NNE,32,0.0,0.0,31,0.00,,---,0.00,VWS V14.01,2013-06-20 23:09:00,
2013-06-20 19:10:00,76.8,43.9,30.18,NE,49,2.7,2.7,31,0.00,,---,0.00,VWS V14.01,2013-06-20 23:10:00,
2013-06-20 19:11:00,76.6,43.8,30.18,NE,49,2.7,2.7,31,0.00,,---,0.00,VWS V14.01,2013-06-20 23:11:00,
2013-06-20 19:13:00,76.6,43.8,30.18,NE,49,2.7,2.7,31,0.00,,---,0.00,VWS V14.01,2013-06-20 23:13:00,
2013-06-20 19:14:00,76.6,43.8,30.18,NE,49,2.7,2.7,31,0.00,,---,0.00,VWS V14.01,2013-06-20 23:14:00,
2013-06-20 19:15:00,76.6,43.8,30.18,NE,49,2.7,2.7,31,0.00,,---,0.00,VWS V14.01,2013-06-20 23:15:00,
2013-06-20 19:16:00,76.6,43.8,30.18,NNW,333,3.6,3.6,31,0.00,,---,0.00,VWS V14.01,2013-06-20 23:16:00,
2013-06-20 19:18:00,76.6,43.8,30.18,NNE,17,4.0,4.0,31,0.00,,---,0.00,VWS V14.01,2013-06-20 23:18:00,
2013-06-20 19:20:00,76.5,43.6,30.18,NE,46,2.7,4.0,31,0.00,,---,0.00,VWS V14.01,2013-06-20 23:20:00,
2013-06-20 19:21:00,76.5,43.6,30.18,NE,46,2.7,2.7,31,0.00,,---,0.00,VWS V14.01,2013-06-20 23:21:00,
2013-06-20 19:23:00,76.5,43.6,30.18,NE,46,2.7,2.7,31,0.00,,---,0.00,VWS V14.01,2013-06-20 23:23:00,
2013-06-20 19:25:00,76.5,43.6,30.18,WNW,284,2.2,2.2,31,0.00,,---,0.00,VWS V14.01,2013-06-20 23:25:00,
2013-06-20 19:26:00,76.5,43.6,30.18,WNW,284,2.2,2.2,31,0.00,,---,0.00,VWS V14.01,2013-06-20 23:26:00,
2013-06-20 19:28:00,76.5,43.6,30.18,ENE,75,3.6,3.6,31,0.00,,---,0.00,VWS V14.01,2013-06-20 23:28:00,
2013-06-20 19:30:00,76.5,43.6,30.18,ENE,75,3.6,3.6,31,0.00,,---,0.00,VWS V14.01,2013-06-20 23:30:00,
2013-06-20 19:31:00,76.5,43.6,30.18,NNE,26,10.5,10.5,31,0.00,,---,0.00,VWS V14.01,2013-06-20 23:31:00,
2013-06-20 19:32:00,76.5,43.6,30.18,NNE,26,10.5,10.5,31,0.00,,---,0.00,VWS V14.01,2013-06-20 23:32:00,
2013-06-20 19:33:00,76.5,43.6,30.18,NE,53,4.0,10.5,31,0.00,,---,0.00,VWS V14.01,2013-06-20 23:33:00,
2013-06-20 19:35:00,76.5,43.6,30.18,NE,53,4.0,4.0,31,0.00,,---,0.00,VWS V14.01,2013-06-20 23:35:00,
2013-06-20 19:36:00,76.5,43.6,30.18,NE,53,4.0,4.0,31,0.00,,---,0.00,VWS V14.01,2013-06-20 23:36:00,
2013-06-20 19:37:00,76.5,43.6,30.18,NE,53,4.0,4.0,31,0.00,,---,0.00,VWS V14.01,2013-06-20 23:37:00,
2013-06-20 19:38:00,76.3,43.5,30.18,NE,46,2.7,2.7,31,0.00,,---,0.00,VWS V14.01,2013-06-20 23:38:00,
2013-06-20 19:40:00,76.1,44.1,30.18,NE,46,2.7,2.7,32,0.00,,---,0.00,VWS V14.01,2013-06-20 23:40:00,
2013-06-20 19:41:00,76.1,44.1,30.18,NE,46,2.7,2.7,32,0.00,,---,0.00,VWS V14.01,2013-06-20 23:41:00,
2013-06-20 19:42:00,76.1,44.1,30.18,NE,46,2.7,2.7,32,0.00,,---,0.00,VWS V14.01,2013-06-20 23:42:00,
2013-06-20 19:43:00,76.1,44.1,30.18,NE,35,3.1,3.1,32,0.00,,---,0.00,VWS V14.01,2013-06-20 23:43:00,
2013-06-20 19:45:00,76.1,44.1,30.18,NE,55,4.9,4.9,32,0.00,,---,0.00,VWS V14.01,2013-06-20 23:45:00,
2013-06-20 19:46:00,75.9,44.0,30.18,North,353,2.7,4.9,32,0.00,,---,0.00,VWS V14.01,2013-06-20 23:46:00,
2013-06-20 19:47:00,75.9,44.0,30.18,North,353,2.7,4.9,32,0.00,,---,0.00,VWS V14.01,2013-06-20 23:47:00,
2013-06-20 19:48:00,75.9,44.0,30.18,North,353,2.7,2.7,32,0.00,,---,0.00,VWS V14.01,2013-06-20 23:48:00,
2013-06-20 19:50:00,75.9,44.0,30.18,NNE,31,5.4,5.4,32,0.00,,---,0.00,VWS V14.01,2013-06-20 23:50:00,
2013-06-20 19:51:00,75.7,43.8,30.18,NNE,31,5.4,5.4,32,0.00,,---,0.00,VWS V14.01,2013-06-20 23:51:00,
2013-06-20 19:52:00,75.7,43.8,30.18,East,88,2.2,5.4,32,0.00,,---,0.00,VWS V14.01,2013-06-20 23:52:00,
2013-06-20 19:54:00,75.6,43.7,30.18,East,88,0.0,0.0,32,0.00,,---,0.00,VWS V14.01,2013-06-20 23:54:00,
2013-06-20 19:55:00,75.6,43.7,30.18,East,88,0.0,0.0,32,0.00,,---,0.00,VWS V14.01,2013-06-20 23:55:00,
2013-06-20 19:56:00,75.6,43.7,30.18,East,88,0.0,0.0,32,0.00,,---,0.00,VWS V14.01,2013-06-20 23:56:00,
2013-06-20 19:57:00,75.6,43.7,30.18,East,88,0.0,0.0,32,0.00,,---,0.00,VWS V14.01,2013-06-20 23:57:00,
2013-06-20 19:59:00,75.6,43.7,30.18,North,357,0.0,0.0,32,0.00,,---,0.00,VWS V14.01,2013-06-20 23:59:00,
2013-06-20 20:00:00,75.6,43.7,30.18,NE,50,4.9,4.9,32,0.00,,---,0.00,VWS V14.01,2013-06-21 00:00:00,
2013-06-20 20:01:00,75.6,43.7,30.18,NNW,327,3.1,3.1,32,0.00,,---,0.00,VWS V14.01,2013-06-21 00:01:00,
2013-06-20 20:02:00,75.6,43.7,30.18,NNW,327,3.1,3.1,32,0.00,,---,0.00,VWS V14.01,2013-06-21 00:02:00,
2013-06-20 20:04:00,75.4,43.5,30.18,NW,321,3.1,3.1,32,0.00,,---,0.00,VWS V14.01,2013-06-21 00:04:00,
2013-06-20 20:05:00,75.2,43.3,30.18,NW,321,3.1,3.1,32,0.00,,---,0.00,VWS V14.01,2013-06-21 00:05:00,
2013-06-20 20:06:00,75.2,43.3,30.18,NNW,346,3.1,3.1,32,0.00,,---,0.00,VWS V14.01,2013-06-21 00:06:00,
2013-06-20 20:07:00,75.2,43.3,30.18,NNW,346,3.1,3.1,32,0.00,,---,0.00,VWS V14.01,2013-06-21 00:07:00,
2013-06-20 20:09:00,75.0,44.0,30.18,NNW,344,3.1,3.1,33,0.00,,---,0.00,VWS V14.01,2013-06-21 00:09:00,
2013-06-20 20:10:00,75.0,44.0,30.18,NNE,33,2.7,2.7,33,0.00,,---,0.00,VWS V14.01,2013-06-21 00:10:00,
2013-06-20 20:11:00,75.0,44.0,30.18,NNE,33,2.7,2.7,33,0.00,,---,0.00,VWS V14.01,2013-06-21 00:11:00,
2013-06-20 20:12:00,75.0,44.0,30.18,NNE,33,2.7,2.7,33,0.00,,---,0.00,VWS V14.01,2013-06-21 00:12:00,
2013-06-20 20:14:00,75.0,44.0,30.18,NE,44,2.7,2.7,33,0.00,,---,0.00,VWS V14.01,2013-06-21 00:14:00,
2013-06-20 20:15:00,74.8,43.8,30.18,NE,44,2.7,2.7,33,0.00,,---,0.00,VWS V14.01,2013-06-21 00:15:00,
2013-06-20 20:16:00,74.8,43.8,30.18,NE,44,2.7,2.7,33,0.00,,---,0.00,VWS V14.01,2013-06-21 00:16:00,
2013-06-20 20:17:00,74.7,43.7,30.18,NE,44,2.7,2.7,33,0.00,,---,0.00,VWS V14.01,2013-06-21 00:17:00,
2013-06-20 20:19:00,74.7,43.7,30.18,North,353,4.0,4.0,33,0.00,,---,0.00,VWS V14.01,2013-06-21 00:19:00,
2013-06-20 20:20:00,74.5,43.5,30.18,NNE,12,4.5,4.5,33,0.00,,---,0.00,VWS V14.01,2013-06-21 00:20:00,
2013-06-20 20:21:00,74.5,43.5,30.18,NNE,12,4.5,4.5,33,0.00,,---,0.00,VWS V14.01,2013-06-21 00:21:00,
2013-06-20 20:22:00,74.5,44.3,30.18,NNE,12,4.5,4.5,34,0.00,,---,0.00,VWS V14.01,2013-06-21 00:22:00,
2013-06-20 20:23:00,74.5,44.3,30.18,NNW,333,2.7,4.5,34,0.00,,---,0.00,VWS V14.01,2013-06-21 00:23:00,
2013-06-20 20:24:00,74.5,44.3,30.18,NNW,333,2.7,2.7,34,0.00,,---,0.00,VWS V14.01,2013-06-21 00:24:00,
2013-06-20 20:25:00,74.5,44.3,30.18,NNW,333,2.7,2.7,34,0.00,,---,0.00,VWS V14.01,2013-06-21 00:25:00,
2013-06-20 20:26:00,74.5,44.3,30.18,NNW,337,0.0,2.7,34,0.00,,---,0.00,VWS V14.01,2013-06-21 00:26:00,
2013-06-20 20:27:00,74.5,44.3,30.18,NNW,337,0.0,0.0,34,0.00,,---,0.00,VWS V14.01,2013-06-21 00:27:00,
2013-06-20 20:28:00,74.5,44.3,30.18,NNW,337,0.0,0.0,34,0.00,,---,0.00,VWS V14.01,2013-06-21 00:28:00,
2013-06-20 20:29:00,74.1,44.0,30.18,NNW,337,0.0,0.0,34,0.00,,---,0.00,VWS V14.01,2013-06-21 00:29:00,
2013-06-20 20:30:00,74.1,44.0,30.18,NNW,337,0.0,0.0,34,0.00,,---,0.00,VWS V14.01,2013-06-21 00:30:00,
2013-06-20 20:31:00,73.9,43.8,30.18,NNW,337,0.0,0.0,34,0.00,,---,0.00,VWS V14.01,2013-06-21 00:31:00,
2013-06-20 20:32:00,73.9,43.8,30.18,NNW,337,0.0,0.0,34,0.00,,---,0.00,VWS V14.01,2013-06-21 00:32:00,
2013-06-20 20:33:00,73.9,43.8,30.18,NNW,337,0.0,0.0,34,0.00,,---,0.00,VWS V14.01,2013-06-21 00:33:00,
2013-06-20 20:34:00,73.9,43.8,30.18,North,11,0.0,2.2,34,0.00,,---,0.00,VWS V14.01,2013-06-21 00:34:00,
2013-06-20 20:35:00,73.9,43.8,30.18,North,11,0.0,0.0,34,0.00,,---,0.00,VWS V14.01,2013-06-21 00:35:00,
2013-06-20 20:37:00,73.9,43.8,30.18,NNE,30,0.0,0.0,34,0.00,,---,0.00,VWS V14.01,2013-06-21 00:37:00,
2013-06-20 20:38:00,73.8,44.4,30.18,NNE,30,0.0,0.0,35,0.00,,---,0.00,VWS V14.01,2013-06-21 00:38:00,
2013-06-20 20:39:00,73.8,44.4,30.18,NNE,30,0.0,0.0,35,0.00,,---,0.00,VWS V14.01,2013-06-21 00:39:00,
2013-06-20 20:41:00,73.6,44.3,30.18,North,11,0.0,2.7,35,0.00,,---,0.00,VWS V14.01,2013-06-21 00:41:00,
2013-06-20 20:42:00,73.6,44.3,30.18,North,11,0.0,0.0,35,0.00,,---,0.00,VWS V14.01,2013-06-21 00:42:00,
2013-06-20 20:43:00,73.6,44.3,30.18,North,11,0.0,0.0,35,0.00,,---,0.00,VWS V14.01,2013-06-21 00:43:00,
2013-06-20 20:44:00,73.6,44.3,30.18,North,11,0.0,0.0,35,0.00,,---,0.00,VWS V14.01,2013-06-21 00:44:00,
2013-06-20 20:46:00,73.6,44.3,30.18,NNW,330,0.0,0.0,35,0.00,,---,0.00,VWS V14.01,2013-06-21 00:46:00,
2013-06-20 20:47:00,73.2,44.7,30.18,NNW,330,0.0,0.0,36,0.00,,---,0.00,VWS V14.01,2013-06-21 00:47:00,
2013-06-20 20:48:00,73.2,44.7,30.18,NNW,348,0.0,0.0,36,0.00,,---,0.00,VWS V14.01,2013-06-21 00:48:00,
2013-06-20 20:49:00,73.2,44.7,30.18,NNW,348,0.0,0.0,36,0.00,,---,0.00,VWS V14.01,2013-06-21 00:49:00,
2013-06-20 20:51:00,73.2,44.7,30.18,NNE,17,2.7,2.7,36,0.00,,---,0.00,VWS V14.01,2013-06-21 00:51:00,
2013-06-20 20:52:00,73.2,44.7,30.18,NNE,14,2.7,2.7,36,0.00,,---,0.00,VWS V14.01,2013-06-21 00:52:00,
2013-06-20 20:53:00,73.2,44.7,30.18,North,350,3.1,3.1,36,0.00,,---,0.00,VWS V14.01,2013-06-21 00:53:00,
2013-06-20 20:54:00,72.9,45.1,30.18,North,350,3.1,3.1,37,0.00,,---,0.00,VWS V14.01,2013-06-21 00:54:00,
2013-06-20 20:56:00,72.9,45.1,30.18,NW,320,3.1,3.1,37,0.00,,---,0.00,VWS V14.01,2013-06-21 00:56:00,
2013-06-20 20:57:00,72.9,45.1,30.18,NW,320,3.1,3.1,37,0.00,,---,0.00,VWS V14.01,2013-06-21 00:57:00,
2013-06-20 20:58:00,72.9,45.1,30.18,NW,320,3.1,3.1,37,0.00,,---,0.00,VWS V14.01,2013-06-21 00:58:00,
2013-06-20 20:59:00,72.9,45.1,30.18,NW,320,3.1,3.1,37,0.00,,---,0.00,VWS V14.01,2013-06-21 00:59:00,
2013-06-20 21:01:00,72.5,44.8,30.18,NW,320,3.1,3.1,37,0.00,,---,0.00,VWS V14.01,2013-06-21 01:01:00,
2013-06-20 21:02:00,72.5,44.8,30.18,NNW,346,0.0,0.0,37,0.00,,---,0.00,VWS V14.01,2013-06-21 01:02:00,
2013-06-20 21:03:00,72.5,44.8,30.18,NNW,346,0.0,0.0,37,0.00,,---,0.00,VWS V14.01,2013-06-21 01:03:00,
2013-06-20 21:05:00,72.5,44.8,30.18,NNW,346,0.0,0.0,37,0.00,,---,0.00,VWS V14.01,2013-06-21 01:05:00,
2013-06-20 21:06:00,72.5,44.8,30.18,NNW,346,0.0,0.0,37,0.00,,---,0.00,VWS V14.01,2013-06-21 01:06:00,
2013-06-20 21:07:00,72.5,44.8,30.18,NNW,345,0.0,0.0,37,0.00,,---,0.00,VWS V14.01,2013-06-21 01:07:00,
2013-06-20 21:08:00,72.5,44.8,30.18,NNW,345,0.0,0.0,37,0.00,,---,0.00,VWS V14.01,2013-06-21 01:08:00,
2013-06-20 21:10:00,72.5,44.8,30.18,NNW,340,0.0,0.0,37,0.00,,---,0.00,VWS V14.01,2013-06-21 01:10:00,
2013-06-20 21:11:00,72.5,44.8,30.18,NW,324,0.0,0.0,37,0.00,,---,0.00,VWS V14.01,2013-06-21 01:11:00,
2013-06-20 21:12:00,72.5,44.8,30.18,NW,324,0.0,0.0,37,0.00,,---,0.00,VWS V14.01,2013-06-21 01:12:00,
2013-06-20 21:13:00,72.0,44.3,30.18,NW,324,0.0,0.0,37,0.00,,---,0.00,VWS V14.01,2013-06-21 01:13:00,
2013-06-20 21:15:00,71.8,44.1,30.18,NW,324,0.0,0.0,37,0.00,,---,0.00,VWS V14.01,2013-06-21 01:15:00,
2013-06-20 21:16:00,71.8,44.1,30.18,NW,324,0.0,0.0,37,0.00,,---,0.00,VWS V14.01,2013-06-21 01:16:00,
2013-06-20 21:17:00,71.8,44.1,30.18,WNW,284,0.0,0.0,37,0.00,,---,0.00,VWS V14.01,2013-06-21 01:17:00,
2013-06-20 21:18:00,71.8,44.1,30.18,WNW,284,0.0,0.0,37,0.00,,---,0.00,VWS V14.01,2013-06-21 01:18:00,
2013-06-20 21:20:00,71.6,44.7,30.18,WNW,283,0.0,0.0,38,0.00,,---,0.00,VWS V14.01,2013-06-21 01:20:00,
2013-06-20 21:21:00,71.6,44.7,30.18,WNW,283,0.0,0.0,38,0.00,,---,0.00,VWS V14.01,2013-06-21 01:21:00,
2013-06-20 21:22:00,71.6,44.7,30.18,WNW,283,0.0,0.0,38,0.00,,---,0.00,VWS V14.01,2013-06-21 01:22:00,
2013-06-20 21:23:00,71.6,44.7,30.18,NW,319,2.2,2.2,38,0.00,,---,0.00,VWS V14.01,2013-06-21 01:23:00,
2013-06-20 21:25:00,71.6,44.7,30.18,NW,319,2.2,2.2,38,0.00,,---,0.00,VWS V14.01,2013-06-21 01:25:00,
2013-06-20 21:26:00,71.1,44.9,30.18,WSW,249,0.0,0.0,39,0.00,,---,0.00,VWS V14.01,2013-06-21 01:26:00,
2013-06-20 21:27:00,71.1,44.9,30.18,WSW,249,0.0,0.0,39,0.00,,---,0.00,VWS V14.01,2013-06-21 01:27:00,
2013-06-20 21:28:00,71.1,44.9,30.18,NW,315,0.0,0.0,39,0.00,,---,0.00,VWS V14.01,2013-06-21 01:28:00,
2013-06-20 21:30:00,70.7,44.5,30.18,NNW,329,2.7,2.7,39,0.00,,---,0.00,VWS V14.01,2013-06-21 01:30:00,
2013-06-20 21:32:00,70.7,45.2,30.18,NNW,329,2.7,2.7,40,0.00,,---,0.00,VWS V14.01,2013-06-21 01:32:00,
2013-06-20 21:33:00,70.7,45.2,30.18,North,353,3.6,3.6,40,0.00,,---,0.00,VWS V14.01,2013-06-21 01:33:00,
2013-06-20 21:35:00,70.7,45.2,30.18,North,353,3.6,3.6,40,0.00,,---,0.00,VWS V14.01,2013-06-21 01:35:00,
2013-06-20 21:37:00,70.7,45.2,30.18,North,353,0.0,3.6,40,0.00,,---,0.00,VWS V14.01,2013-06-21 01:37:00,
2013-06-20 21:38:00,70.5,45.7,30.18,North,353,0.0,0.0,41,0.00,,---,0.00,VWS V14.01,2013-06-21 01:38:00,
2013-06-20 21:40:00,70.5,45.7,30.18,NNW,345,0.0,0.0,41,0.00,,---,0.00,VWS V14.01,2013-06-21 01:40:00,
2013-06-20 21:42:00,70.5,45.7,30.18,North,353,0.0,0.0,41,0.00,,---,0.00,VWS V14.01,2013-06-21 01:42:00,
2013-06-20 21:43:00,70.5,45.7,30.18,North,353,0.0,0.0,41,0.00,,---,0.00,VWS V14.01,2013-06-21 01:43:00,
2013-06-20 21:45:00,70.5,45.7,30.18,NNW,341,2.7,2.7,41,0.00,,---,0.00,VWS V14.01,2013-06-21 01:45:00,
2013-06-20 21:47:00,70.5,45.7,30.18,NNW,334,2.2,2.2,41,0.00,,---,0.00,VWS V14.01,2013-06-21 01:47:00,
2013-06-20 21:48:00,70.3,46.2,30.18,NNW,334,2.2,2.2,42,0.00,,---,0.00,VWS V14.01,2013-06-21 01:48:00,
2013-06-20 21:50:00,70.3,46.2,30.18,NNW,334,2.2,2.2,42,0.00,,---,0.00,VWS V14.01,2013-06-21 01:50:00,
2013-06-20 21:52:00,70.3,46.2,30.18,NW,319,2.7,3.1,42,0.00,,---,0.00,VWS V14.01,2013-06-21 01:52:00,
2013-06-20 21:53:00,70.3,46.2,30.18,NW,319,2.7,2.7,42,0.00,,---,0.00,VWS V14.01,2013-06-21 01:53:00,
2013-06-20 21:54:00,70.3,46.2,30.18,NNW,342,0.0,2.7,42,0.00,,---,0.00,VWS V14.01,2013-06-21 01:54:00,
2013-06-20 21:55:00,70.2,46.6,30.18,NNW,342,0.0,0.0,43,0.00,,---,0.00,VWS V14.01,2013-06-21 01:55:00,
2013-06-20 21:57:00,70.2,46.6,30.18,NNW,342,0.0,0.0,43,0.00,,---,0.00,VWS V14.01,2013-06-21 01:57:00,
2013-06-20 21:58:00,70.2,46.6,30.18,North,353,2.7,2.7,43,0.00,,---,0.00,VWS V14.01,2013-06-21 01:58:00,
2013-06-20 21:59:00,70.2,46.6,30.18,North,353,2.7,2.7,43,0.00,,---,0.00,VWS V14.01,2013-06-21 01:59:00,
2013-06-20 22:00:00,70.2,46.6,30.18,NNW,339,0.0,0.0,43,0.00,,---,0.00,VWS V14.01,2013-06-21 02:00:00,
2013-06-20 22:02:00,70.2,46.6,30.18,NNW,348,0.0,0.0,43,0.00,,---,0.00,VWS V14.01,2013-06-21 02:02:00,
2013-06-20 22:03:00,70.2,46.6,30.18,NNW,341,0.0,0.0,43,0.00,,---,0.00,VWS V14.01,2013-06-21 02:03:00,
2013-06-20 22:04:00,70.2,46.6,30.18,NNW,341,0.0,0.0,43,0.00,,---,0.00,VWS V14.01,2013-06-21 02:04:00,
2013-06-20 22:06:00,69.8,46.3,30.21,NNW,341,0.0,0.0,43,0.00,,---,0.00,VWS V14.01,2013-06-21 02:06:00,
2013-06-20 22:07:00,69.8,46.3,30.21,NNW,336,2.2,2.2,43,0.00,,---,0.00,VWS V14.01,2013-06-21 02:07:00,
2013-06-20 22:08:00,69.8,46.3,30.21,NNW,336,2.2,2.2,43,0.00,,---,0.00,VWS V14.01,2013-06-21 02:08:00,
2013-06-20 22:09:00,69.8,46.3,30.21,NNW,336,2.2,2.2,43,0.00,,---,0.00,VWS V14.01,2013-06-21 02:09:00,
2013-06-20 22:11:00,69.8,46.3,30.21,NNW,333,0.0,0.0,43,0.00,,---,0.00,VWS V14.01,2013-06-21 02:11:00,
2013-06-20 22:12:00,69.8,46.3,30.21,NNW,333,0.0,0.0,43,0.00,,---,0.00,VWS V14.01,2013-06-21 02:12:00,
2013-06-20 22:13:00,69.8,46.3,30.21,NNW,344,3.1,3.1,43,0.00,,---,0.00,VWS V14.01,2013-06-21 02:13:00,
2013-06-20 22:14:00,69.8,46.3,30.21,NNW,344,3.1,3.1,43,0.00,,---,0.00,VWS V14.01,2013-06-21 02:14:00,
2013-06-20 22:16:00,69.8,46.3,30.21,NNW,345,4.0,4.0,43,0.00,,---,0.00,VWS V14.01,2013-06-21 02:16:00,
2013-06-20 22:17:00,69.8,46.3,30.21,NNW,345,4.0,4.0,43,0.00,,---,0.00,VWS V14.01,2013-06-21 02:17:00,
2013-06-20 22:18:00,69.8,46.3,30.21,NNE,15,3.6,3.6,43,0.00,,---,0.00,VWS V14.01,2013-06-21 02:18:00,
2013-06-20 22:19:00,69.8,46.3,30.21,NNE,15,3.6,3.6,43,0.00,,---,0.00,VWS V14.01,2013-06-21 02:19:00,
2013-06-20 22:21:00,69.8,46.3,30.21,NW,304,4.9,4.9,43,0.00,,---,0.00,VWS V14.01,2013-06-21 02:21:00,
2013-06-20 22:22:00,69.4,46.0,30.21,NW,304,4.9,4.9,43,0.00,,---,0.00,VWS V14.01,2013-06-21 02:22:00,
2013-06-20 22:23:00,69.4,46.0,30.21,NW,304,4.9,4.9,43,0.00,,---,0.00,VWS V14.01,2013-06-21 02:23:00,
2013-06-20 22:24:00,69.4,46.0,30.21,NW,304,4.9,4.9,43,0.00,,---,0.00,VWS V14.01,2013-06-21 02:24:00,
2013-06-20 22:26:00,69.4,46.0,30.21,NNW,335,6.3,6.3,43,0.00,,---,0.00,VWS V14.01,2013-06-21 02:26:00,
2013-06-20 22:27:00,69.4,46.0,30.21,NNW,335,6.3,6.3,43,0.00,,---,0.00,VWS V14.01,2013-06-21 02:27:00,
2013-06-20 22:28:00,69.4,46.0,30.21,NE,35,0.0,6.3,43,0.00,,---,0.00,VWS V14.01,2013-06-21 02:28:00,
2013-06-20 22:29:00,69.4,46.0,30.21,NE,35,0.0,6.3,43,0.00,,---,0.00,VWS V14.01,2013-06-21 02:29:00,
2013-06-20 22:31:00,69.3,46.4,30.21,NE,35,0.0,0.0,44,0.00,,---,0.00,VWS V14.01,2013-06-21 02:31:00,
2013-06-20 22:32:00,69.3,46.4,30.21,NE,35,0.0,0.0,44,0.00,,---,0.00,VWS V14.01,2013-06-21 02:32:00,
2013-06-20 22:33:00,69.3,46.4,30.21,NNE,17,6.3,6.3,44,0.00,,---,0.00,VWS V14.01,2013-06-21 02:33:00,
2013-06-20 22:34:00,69.3,46.4,30.21,NNE,17,6.3,6.3,44,0.00,,---,0.00,VWS V14.01,2013-06-21 02:34:00,
2013-06-20 22:35:00,69.3,46.4,30.21,North,4,6.7,6.7,44,0.00,,---,0.00,VWS V14.01,2013-06-21 02:35:00,
2013-06-20 22:36:00,69.3,47.0,30.21,North,4,6.7,6.7,45,0.00,,---,0.00,VWS V14.01,2013-06-21 02:36:00,
2013-06-20 22:37:00,69.3,47.0,30.21,NNW,343,4.0,4.0,45,0.00,,---,0.00,VWS V14.01,2013-06-21 02:37:00,
2013-06-20 22:38:00,69.3,47.0,30.21,NNW,343,4.0,4.0,45,0.00,,---,0.00,VWS V14.01,2013-06-21 02:38:00,
2013-06-20 22:39:00,69.3,47.0,30.21,NNW,340,3.1,4.0,45,0.00,,---,0.00,VWS V14.01,2013-06-21 02:39:00,
2013-06-20 22:40:00,69.3,47.0,30.21,NNW,340,3.1,3.1,45,0.00,,---,0.00,VWS V14.01,2013-06-21 02:40:00,
2013-06-20 22:41:00,69.3,47.0,30.21,NNW,340,3.1,3.1,45,0.00,,---,0.00,VWS V14.01,2013-06-21 02:41:00,
2013-06-20 22:42:00,69.3,47.0,30.21,NNW,340,3.1,3.1,45,0.00,,---,0.00,VWS V14.01,2013-06-21 02:42:00,
2013-06-20 22:43:00,69.3,47.0,30.21,North,0,3.1,3.1,45,0.00,,---,0.00,VWS V14.01,2013-06-21 02:43:00,
2013-06-20 22:44:00,69.3,47.0,30.21,North,0,3.1,3.1,45,0.00,,---,0.00,VWS V14.01,2013-06-21 02:44:00,
2013-06-20 22:45:00,69.1,47.5,30.21,North,0,3.1,3.1,46,0.00,,---,0.00,VWS V14.01,2013-06-21 02:45:00,
2013-06-20 22:46:00,69.1,47.5,30.21,North,357,3.6,3.6,46,0.00,,---,0.00,VWS V14.01,2013-06-21 02:46:00,
2013-06-20 22:48:00,69.3,47.6,30.21,NW,324,3.6,3.6,46,0.00,,---,0.00,VWS V14.01,2013-06-21 02:48:00,
2013-06-20 22:49:00,69.3,47.6,30.21,NW,324,3.6,3.6,46,0.00,,---,0.00,VWS V14.01,2013-06-21 02:49:00,
2013-06-20 22:50:00,69.3,47.6,30.21,NW,324,3.6,3.6,46,0.00,,---,0.00,VWS V14.01,2013-06-21 02:50:00,
2013-06-20 22:51:00,69.3,47.6,30.21,NW,324,3.6,3.6,46,0.00,,---,0.00,VWS V14.01,2013-06-21 02:51:00,
2013-06-20 22:53:00,69.3,47.6,30.21,NE,51,4.0,4.0,46,0.00,,---,0.00,VWS V14.01,2013-06-21 02:53:00,
2013-06-20 22:54:00,69.3,47.6,30.21,NE,51,4.0,4.0,46,0.00,,---,0.00,VWS V14.01,2013-06-21 02:54:00,
2013-06-20 22:55:00,69.3,47.6,30.21,NE,51,4.0,4.0,46,0.00,,---,0.00,VWS V14.01,2013-06-21 02:55:00,
2013-06-20 22:56:00,69.3,48.2,30.21,NE,51,4.0,4.0,47,0.00,,---,0.00,VWS V14.01,2013-06-21 02:56:00,
2013-06-20 22:58:00,69.3,48.2,30.21,NE,51,4.0,4.0,47,0.00,,---,0.00,VWS V14.01,2013-06-21 02:58:00,
2013-06-20 22:59:00,69.3,48.8,30.21,NNW,340,5.4,5.4,48,0.00,,---,0.00,VWS V14.01,2013-06-21 02:59:00,
2013-06-20 23:00:00,69.3,48.8,30.21,NNW,340,5.4,5.4,48,0.00,,---,0.00,VWS V14.01,2013-06-21 03:00:00,
2013-06-20 23:01:00,69.3,48.8,30.21,WNW,293,0.0,0.0,48,0.00,,---,0.00,VWS V14.01,2013-06-21 03:01:00,
2013-06-20 23:03:00,69.3,48.8,30.21,NNW,346,5.8,5.8,48,0.00,,---,0.00,VWS V14.01,2013-06-21 03:03:00,
2013-06-20 23:04:00,69.3,48.8,30.21,NNW,346,5.8,5.8,48,0.00,,---,0.00,VWS V14.01,2013-06-21 03:04:00,
2013-06-20 23:05:00,69.3,48.8,30.21,NNW,346,5.8,5.8,48,0.00,,---,0.00,VWS V14.01,2013-06-21 03:05:00,
2013-06-20 23:06:00,69.3,48.8,30.21,NNE,19,4.0,4.0,48,0.00,,---,0.00,VWS V14.01,2013-06-21 03:06:00,
2013-06-20 23:08:00,69.3,48.8,30.21,NNW,336,3.6,4.0,48,0.00,,---,0.00,VWS V14.01,2013-06-21 03:08:00,
2013-06-20 23:09:00,69.3,48.8,30.21,North,353,4.5,4.5,48,0.00,,---,0.00,VWS V14.01,2013-06-21 03:09:00,
2013-06-20 23:10:00,69.3,48.8,30.21,NNW,343,5.4,5.4,48,0.00,,---,0.00,VWS V14.01,2013-06-21 03:10:00,
2013-06-20 23:11:00,69.3,48.8,30.21,North,357,4.0,5.8,48,0.00,,---,0.00,VWS V14.01,2013-06-21 03:11:00,
2013-06-20 23:13:00,69.3,48.8,30.21,North,357,4.0,4.0,48,0.00,,---,0.00,VWS V14.01,2013-06-21 03:13:00,
2013-06-20 23:14:00,69.1,48.6,30.21,North,357,4.0,4.0,48,0.00,,---,0.00,VWS V14.01,2013-06-21 03:14:00,
2013-06-20 23:15:00,68.9,48.4,30.21,NNW,341,2.7,2.7,48,0.00,,---,0.00,VWS V14.01,2013-06-21 03:15:00,
2013-06-20 23:17:00,68.9,48.4,30.21,NNW,341,2.7,2.7,48,0.00,,---,0.00,VWS V14.01,2013-06-21 03:17:00,
2013-06-20 23:18:00,68.9,48.4,30.21,NNW,341,2.7,2.7,48,0.00,,---,0.00,VWS V14.01,2013-06-21 03:18:00,
2013-06-20 23:19:00,68.9,48.4,30.21,NNE,14,4.0,4.0,48,0.00,,---,0.00,VWS V14.01,2013-06-21 03:19:00,
2013-06-20 23:20:00,68.9,48.4,30.21,North,0,4.9,4.9,48,0.00,,---,0.00,VWS V14.01,2013-06-21 03:20:00,
2013-06-20 23:22:00,68.7,48.3,30.21,NW,326,3.1,3.1,48,0.00,,---,0.00,VWS V14.01,2013-06-21 03:22:00,
2013-06-20 23:23:00,68.7,48.3,30.21,NW,326,3.1,3.1,48,0.00,,---,0.00,VWS V14.01,2013-06-21 03:23:00,
2013-06-20 23:24:00,68.7,48.8,30.21,West,278,2.2,2.2,49,0.00,,---,0.00,VWS V14.01,2013-06-21 03:24:00,
2013-06-20 23:25:00,68.7,48.8,30.21,North,353,2.7,2.7,49,0.00,,---,0.00,VWS V14.01,2013-06-21 03:25:00,
2013-06-20 23:27:00,68.7,48.8,30.21,NNW,342,5.4,5.4,49,0.00,,---,0.00,VWS V14.01,2013-06-21 03:27:00,
2013-06-20 23:28:00,68.7,48.8,30.21,NNW,342,5.4,5.4,49,0.00,,---,0.00,VWS V14.01,2013-06-21 03:28:00,
2013-06-20 23:29:00,68.7,48.8,30.21,NNW,333,3.1,3.1,49,0.00,,---,0.00,VWS V14.01,2013-06-21 03:29:00,
2013-06-20 23:30:00,68.5,48.6,30.21,North,2,3.1,3.1,49,0.00,,---,0.00,VWS V14.01,2013-06-21 03:30:00,
2013-06-20 23:32:00,68.5,48.6,30.21,North,2,3.1,3.1,49,0.00,,---,0.00,VWS V14.01,2013-06-21 03:32:00,
2013-06-20 23:33:00,68.5,48.6,30.21,North,357,5.8,6.3,49,0.00,,---,0.00,VWS V14.01,2013-06-21 03:33:00,
2013-06-20 23:34:00,68.5,48.6,30.21,North,357,5.8,5.8,49,0.00,,---,0.00,VWS V14.01,2013-06-21 03:34:00,
2013-06-20 23:35:00,68.5,48.6,30.21,North,357,5.8,5.8,49,0.00,,---,0.00,VWS V14.01,2013-06-21 03:35:00,
2013-06-20 23:37:00,68.5,48.6,30.21,North,357,4.0,4.0,49,0.00,,---,0.00,VWS V14.01,2013-06-21 03:37:00,
2013-06-20 23:38:00,68.5,48.6,30.21,NW,323,5.4,5.4,49,0.00,,---,0.00,VWS V14.01,2013-06-21 03:38:00,
2013-06-20 23:39:00,68.4,48.5,30.21,North,0,4.0,4.0,49,0.00,,---,0.00,VWS V14.01,2013-06-21 03:39:00,
2013-06-20 23:40:00,68.4,48.5,30.21,North,0,4.0,4.0,49,0.00,,---,0.00,VWS V14.01,2013-06-21 03:40:00,
2013-06-20 23:42:00,68.4,48.5,30.21,NNW,338,4.9,4.9,49,0.00,,---,0.00,VWS V14.01,2013-06-21 03:42:00,
2013-06-20 23:43:00,68.4,48.5,30.21,NNW,338,4.9,4.9,49,0.00,,---,0.00,VWS V14.01,2013-06-21 03:43:00,
2013-06-20 23:44:00,68.4,48.5,30.21,NNW,338,4.9,4.9,49,0.00,,---,0.00,VWS V14.01,2013-06-21 03:44:00,
2013-06-20 23:45:00,68.4,48.5,30.21,NNW,338,4.9,4.9,49,0.00,,---,0.00,VWS V14.01,2013-06-21 03:45:00,
2013-06-20 23:47:00,68.2,48.3,30.21,North,4,5.8,5.8,49,0.00,,---,0.00,VWS V14.01,2013-06-21 03:47:00,
2013-06-20 23:48:00,68.2,48.8,30.21,NNW,330,5.4,5.4,50,0.00,,---,0.00,VWS V14.01,2013-06-21 03:48:00,
2013-06-20 23:49:00,68.0,48.7,30.21,NNW,330,5.4,5.4,50,0.00,,---,0.00,VWS V14.01,2013-06-21 03:49:00,
2013-06-20 23:50:00,68.0,48.7,30.21,NNW,330,5.4,5.4,50,0.00,,---,0.00,VWS V14.01,2013-06-21 03:50:00,
2013-06-20 23:52:00,68.0,48.7,30.21,NW,314,5.8,5.8,50,0.00,,---,0.00,VWS V14.01,2013-06-21 03:52:00,
2013-06-20 23:53:00,68.0,48.7,30.21,WNW,299,2.7,2.7,50,0.00,,---,0.00,VWS V14.01,2013-06-21 03:53:00,
2013-06-20 23:54:00,67.8,49.0,30.21,NW,304,3.6,5.4,51,0.00,,---,0.00,VWS V14.01,2013-06-21 03:54:00,
2013-06-20 23:55:00,67.8,49.0,30.21,NW,304,3.6,5.4,51,0.00,,---,0.00,VWS V14.01,2013-06-21 03:55:00,
2013-06-20 23:57:00,67.8,49.0,30.21,NNE,18,4.9,4.9,51,0.00,,---,0.00,VWS V14.01,2013-06-21 03:57:00,
2013-06-20 23:58:00,67.8,49.0,30.21,NNE,18,4.9,4.9,51,0.00,,---,0.00,VWS V14.01,2013-06-21 03:58:00,